Wetterdaten: Tuesday, 01.03.2022
Datum Zeit Temp. Aussen Temp. o. S. Temp +5cm Feuchte Auss Luftdruck Regen Sonnenschein Regendauer Solar Windben Empfang
01.03.2022 00:00 4,3 C 3,3 C 0,0 C 67 % 1029,6 hPa 0,0 l/m 0 min 0 min 0 W/m 12,9 km/h (3 Bft) 100,00 %
01.03.2022 00:02 4,3 C 3,3 C 0,0 C 67 % 1029,6 hPa 0,0 l/m 0 min 0 min 0 W/m 16,1 km/h (3 Bft) 100,00 %
01.03.2022 00:04 4,3 C 3,3 C 0,0 C 67 % 1029,6 hPa 0,0 l/m 0 min 0 min 0 W/m 12,9 km/h (3 Bft) 100,00 %
01.03.2022 00:08 4,2 C 3,3 C 0,0 C 68 % 1029,6 hPa 0,0 l/m 0 min 0 min 0 W/m 12,9 km/h (3 Bft) 100,00 %
01.03.2022 00:10 4,2 C 3,3 C 0,0 C 68 % 1029,6 hPa 0,0 l/m 0 min 0 min 0 W/m 16,1 km/h (3 Bft) 100,00 %
01.03.2022 00:12 4,2 C 3,3 C 0,0 C 68 % 1029,4 hPa 0,0 l/m 0 min 0 min 0 W/m 12,9 km/h (3 Bft) 100,00 %
01.03.2022 00:14 4,2 C 3,3 C 0,0 C 68 % 1029,4 hPa 0,0 l/m 0 min 0 min 0 W/m 12,9 km/h (3 Bft) 100,00 %
01.03.2022 00:16 4,2 C 3,3 C 0,0 C 68 % 1029,5 hPa 0,0 l/m 0 min 0 min 0 W/m 16,1 km/h (3 Bft) 100,00 %
01.03.2022 00:18 4,2 C 3,3 C 0,0 C 68 % 1029,5 hPa 0,0 l/m 0 min 0 min 0 W/m 16,1 km/h (3 Bft) 100,00 %
01.03.2022 00:20 4,2 C 3,3 C 0,0 C 68 % 1029,5 hPa 0,0 l/m 0 min 0 min 0 W/m 12,9 km/h (3 Bft) 100,00 %
01.03.2022 00:22 4,2 C 3,3 C 0,0 C 68 % 1029,5 hPa 0,0 l/m 0 min 0 min 0 W/m 12,9 km/h (3 Bft) 97,87 %
01.03.2022 00:24 4,2 C 3,3 C 0,0 C 68 % 1029,6 hPa 0,0 l/m 0 min 0 min 0 W/m 9,7 km/h (2 Bft) 100,00 %
01.03.2022 00:26 4,2 C 3,3 C 0,0 C 68 % 1029,5 hPa 0,0 l/m 0 min 0 min 0 W/m 16,1 km/h (3 Bft) 100,00 %
01.03.2022 00:28 4,2 C 3,3 C 0,0 C 68 % 1029,5 hPa 0,0 l/m 0 min 0 min 0 W/m 12,9 km/h (3 Bft) 100,00 %
01.03.2022 00:30 4,2 C 3,3 C 0,0 C 68 % 1029,5 hPa 0,0 l/m 0 min 0 min 0 W/m 16,1 km/h (3 Bft) 100,00 %
01.03.2022 00:32 4,2 C 3,3 C 0,0 C 68 % 1029,4 hPa 0,0 l/m 0 min 0 min 0 W/m 12,9 km/h (3 Bft) 100,00 %
01.03.2022 00:34 4,2 C 3,3 C 0,0 C 68 % 1029,4 hPa 0,0 l/m 0 min 0 min 0 W/m 12,9 km/h (3 Bft) 100,00 %
01.03.2022 00:36 4,2 C 3,3 C 0,0 C 68 % 1029,4 hPa 0,0 l/m 0 min 0 min 0 W/m 16,1 km/h (3 Bft) 97,87 %
01.03.2022 00:38 4,2 C 3,3 C 0,0 C 68 % 1029,4 hPa 0,0 l/m 0 min 0 min 0 W/m 12,9 km/h (3 Bft) 95,65 %
01.03.2022 00:40 4,2 C 3,3 C 0,0 C 68 % 1029,4 hPa 0,0 l/m 0 min 0 min 0 W/m 19,3 km/h (3 Bft) 97,87 %
01.03.2022 00:42 4,2 C 3,3 C 0,0 C 68 % 1029,4 hPa 0,0 l/m 0 min 0 min 0 W/m 12,9 km/h (3 Bft) 97,92 %
01.03.2022 00:44 4,2 C 3,3 C 0,0 C 68 % 1029,4 hPa 0,0 l/m 0 min 0 min 0 W/m 12,9 km/h (3 Bft) 93,62 %
01.03.2022 00:46 4,2 C 3,3 C 0,0 C 68 % 1029,5 hPa 0,0 l/m 0 min 0 min 0 W/m 6,4 km/h (2 Bft) 95,74 %
01.03.2022 00:48 4,2 C 3,3 C 0,0 C 68 % 1029,5 hPa 0,0 l/m 0 min 0 min 0 W/m 6,4 km/h (2 Bft) 95,74 %
01.03.2022 00:50 4,2 C 3,3 C 0,0 C 68 % 1029,5 hPa 0,0 l/m 0 min 0 min 0 W/m 9,7 km/h (2 Bft) 50,00 %
01.03.2022 00:52 4,2 C 3,3 C 0,0 C 68 % 1029,6 hPa 0,0 l/m 0 min 0 min 0 W/m 9,7 km/h (2 Bft) 91,49 %
01.03.2022 00:54 4,2 C 3,3 C 0,0 C 68 % 1029,6 hPa 0,0 l/m 0 min 0 min 0 W/m 6,4 km/h (2 Bft) 95,74 %
01.03.2022 00:56 4,2 C 3,3 C -0,6 C 68 % 1029,6 hPa 0,0 l/m 0 min 0 min 0 W/m 6,4 km/h (2 Bft) 89,36 %
01.03.2022 00:58 4,2 C 3,3 C -0,6 C 68 % 1029,6 hPa 0,0 l/m 0 min 0 min 0 W/m 6,4 km/h (2 Bft) 95,74 %
01.03.2022 01:00 4,2 C 3,3 C -0,6 C 68 % 1029,5 hPa 0,0 l/m 0 min 0 min 0 W/m 3,2 km/h (1 Bft) 95,74 %
01.03.2022 01:02 4,1 C 2,8 C -0,6 C 68 % 1029,5 hPa 0,0 l/m 0 min 0 min 0 W/m 6,4 km/h (2 Bft) 93,48 %
01.03.2022 01:04 4,1 C 2,8 C -0,6 C 68 % 1029,5 hPa 0,0 l/m 0 min 0 min 0 W/m 6,4 km/h (2 Bft) 93,62 %
01.03.2022 01:06 4,1 C 2,8 C -0,6 C 68 % 1029,5 hPa 0,0 l/m 0 min 0 min 0 W/m 6,4 km/h (2 Bft) 91,49 %
01.03.2022 01:08 4,1 C 2,8 C -0,6 C 68 % 1029,5 hPa 0,0 l/m 0 min 0 min 0 W/m 16,1 km/h (3 Bft) 93,62 %
01.03.2022 01:10 4,0 C 3,3 C -0,6 C 68 % 1029,4 hPa 0,0 l/m 0 min 0 min 0 W/m 12,9 km/h (3 Bft) 91,49 %
01.03.2022 01:12 4,0 C 3,3 C -0,6 C 68 % 1029,4 hPa 0,0 l/m 0 min 0 min 0 W/m 12,9 km/h (3 Bft) 91,30 %
01.03.2022 01:14 4,0 C 3,3 C -0,6 C 68 % 1029,4 hPa 0,0 l/m 0 min 0 min 0 W/m 12,9 km/h (3 Bft) 91,49 %
01.03.2022 01:16 4,0 C 3,3 C -0,6 C 68 % 1029,4 hPa 0,0 l/m 0 min 0 min 0 W/m 12,9 km/h (3 Bft) 95,74 %
01.03.2022 01:18 4,0 C 3,3 C -0,6 C 69 % 1029,4 hPa 0,0 l/m 0 min 0 min 0 W/m 9,7 km/h (2 Bft) 95,74 %
01.03.2022 01:20 4,0 C 3,3 C -0,6 C 68 % 1029,4 hPa 0,0 l/m 0 min 0 min 0 W/m 6,4 km/h (2 Bft) 95,74 %
01.03.2022 01:22 4,0 C 3,3 C -0,6 C 68 % 1029,4 hPa 0,0 l/m 0 min 0 min 0 W/m 12,9 km/h (3 Bft) 95,74 %
01.03.2022 01:24 4,0 C 3,3 C -0,6 C 69 % 1029,4 hPa 0,0 l/m 0 min 0 min 0 W/m 6,4 km/h (2 Bft) 95,65 %
01.03.2022 01:26 3,9 C 2,8 C -0,6 C 69 % 1029,4 hPa 0,0 l/m 0 min 0 min 0 W/m 6,4 km/h (2 Bft) 93,62 %
01.03.2022 01:28 3,9 C 2,8 C -0,6 C 69 % 1029,3 hPa 0,0 l/m 0 min 0 min 0 W/m 3,2 km/h (1 Bft) 95,74 %
01.03.2022 01:30 3,9 C 2,8 C -0,6 C 69 % 1029,3 hPa 0,0 l/m 0 min 0 min 0 W/m 6,4 km/h (2 Bft) 95,74 %
01.03.2022 01:32 3,9 C 2,8 C -0,6 C 69 % 1029,3 hPa 0,0 l/m 0 min 0 min 0 W/m 6,4 km/h (2 Bft) 95,74 %
01.03.2022 01:34 3,9 C 2,8 C -0,6 C 69 % 1029,3 hPa 0,0 l/m 0 min 0 min 0 W/m 6,4 km/h (2 Bft) 97,87 %
01.03.2022 01:36 3,8 C 2,8 C -0,6 C 69 % 1029,2 hPa 0,0 l/m 0 min 0 min 0 W/m 12,9 km/h (3 Bft) 93,48 %
01.03.2022 01:38 3,8 C 2,8 C -0,6 C 69 % 1029,3 hPa 0,0 l/m 0 min 0 min 0 W/m 12,9 km/h (3 Bft) 100,00 %
01.03.2022 01:40 3,8 C 2,8 C -0,6 C 69 % 1029,3 hPa 0,0 l/m 0 min 0 min 0 W/m 6,4 km/h (2 Bft) 97,87 %
01.03.2022 01:42 3,8 C 2,8 C -0,6 C 69 % 1029,3 hPa 0,0 l/m 0 min 0 min 0 W/m 12,9 km/h (3 Bft) 100,00 %
01.03.2022 01:44 3,8 C 2,8 C -0,6 C 69 % 1029,3 hPa 0,0 l/m 0 min 0 min 0 W/m 6,4 km/h (2 Bft) 97,87 %
01.03.2022 01:46 3,8 C 2,8 C -0,6 C 69 % 1029,3 hPa 0,0 l/m 0 min 0 min 0 W/m 9,7 km/h (2 Bft) 97,87 %
01.03.2022 01:48 3,7 C 2,8 C -0,6 C 69 % 1029,3 hPa 0,0 l/m 0 min 0 min 0 W/m 12,9 km/h (3 Bft) 100,00 %
01.03.2022 01:50 3,8 C 2,8 C -0,6 C 69 % 1029,3 hPa 0,0 l/m 0 min 0 min 0 W/m 6,4 km/h (2 Bft) 100,00 %
01.03.2022 01:52 3,8 C 2,8 C -0,6 C 69 % 1029,2 hPa 0,0 l/m 0 min 0 min 0 W/m 6,4 km/h (2 Bft) 97,87 %
01.03.2022 01:54 3,7 C 2,8 C -0,6 C 69 % 1029,3 hPa 0,0 l/m 0 min 0 min 0 W/m 6,4 km/h (2 Bft) 100,00 %
01.03.2022 01:56 3,7 C 2,8 C -0,6 C 69 % 1029,3 hPa 0,0 l/m 0 min 0 min 0 W/m 6,4 km/h (2 Bft) 100,00 %
01.03.2022 01:58 3,7 C 2,8 C -0,6 C 69 % 1029,3 hPa 0,0 l/m 0 min 0 min 0 W/m 6,4 km/h (2 Bft) 100,00 %
01.03.2022 02:00 3,7 C 2,8 C -0,6 C 69 % 1029,3 hPa 0,0 l/m 0 min 0 min 0 W/m 6,4 km/h (2 Bft) 100,00 %
01.03.2022 02:02 3,7 C 2,8 C -0,6 C 69 % 1029,3 hPa 0,0 l/m 0 min 0 min 0 W/m 6,4 km/h (2 Bft) 100,00 %
01.03.2022 02:04 3,7 C 2,8 C -0,6 C 69 % 1029,4 hPa 0,0 l/m 0 min 0 min 0 W/m 3,2 km/h (1 Bft) 100,00 %
01.03.2022 02:06 3,7 C 2,8 C -0,6 C 69 % 1029,4 hPa 0,0 l/m 0 min 0 min 0 W/m 3,2 km/h (1 Bft) 100,00 %
01.03.2022 02:08 3,7 C 2,8 C -1,1 C 69 % 1029,3 hPa 0,0 l/m 0 min 0 min 0 W/m 0,0 km/h (0 Bft) 100,00 %
01.03.2022 02:10 3,7 C 2,2 C -1,1 C 69 % 1029,4 hPa 0,0 l/m 0 min 0 min 0 W/m 0,0 km/h (0 Bft) 100,00 %
01.03.2022 02:12 3,7 C 2,2 C -1,1 C 69 % 1029,4 hPa 0,0 l/m 0 min 0 min 0 W/m 3,2 km/h (1 Bft) 97,87 %
01.03.2022 02:14 3,7 C 2,2 C -1,1 C 69 % 1029,3 hPa 0,0 l/m 0 min 0 min 0 W/m 6,4 km/h (2 Bft) 97,87 %
01.03.2022 02:16 3,6 C 2,2 C -1,1 C 69 % 1029,3 hPa 0,0 l/m 0 min 0 min 0 W/m 6,4 km/h (2 Bft) 97,87 %
01.03.2022 02:18 3,6 C 2,8 C -1,1 C 69 % 1029,3 hPa 0,0 l/m 0 min 0 min 0 W/m 3,2 km/h (1 Bft) 100,00 %
01.03.2022 02:20 3,6 C 2,8 C -1,1 C 69 % 1029,3 hPa 0,0 l/m 0 min 0 min 0 W/m 6,4 km/h (2 Bft) 100,00 %
01.03.2022 02:22 3,6 C 2,8 C -1,1 C 69 % 1029,4 hPa 0,0 l/m 0 min 0 min 0 W/m 6,4 km/h (2 Bft) 100,00 %
01.03.2022 02:24 3,6 C 2,8 C -1,1 C 69 % 1029,4 hPa 0,0 l/m 0 min 0 min 0 W/m 6,4 km/h (2 Bft) 95,74 %
01.03.2022 02:26 3,6 C 2,8 C -1,1 C 69 % 1029,4 hPa 0,0 l/m 0 min 0 min 0 W/m 6,4 km/h (2 Bft) 100,00 %
01.03.2022 02:28 3,6 C 2,8 C -1,1 C 69 % 1029,4 hPa 0,0 l/m 0 min 0 min 0 W/m 3,2 km/h (1 Bft) 100,00 %
01.03.2022 02:30 3,6 C 2,8 C -1,1 C 70 % 1029,4 hPa 0,0 l/m 0 min 0 min 0 W/m 12,9 km/h (3 Bft) 97,87 %
01.03.2022 02:32 3,5 C 2,8 C -1,1 C 70 % 1029,4 hPa 0,0 l/m 0 min 0 min 0 W/m 6,4 km/h (2 Bft) 97,87 %
01.03.2022 02:34 3,5 C 2,8 C -1,1 C 70 % 1029,4 hPa 0,0 l/m 0 min 0 min 0 W/m 12,9 km/h (3 Bft) 97,83 %
01.03.2022 02:36 3,5 C 2,8 C -1,1 C 70 % 1029,4 hPa 0,0 l/m 0 min 0 min 0 W/m 6,4 km/h (2 Bft) 100,00 %
01.03.2022 02:38 3,5 C 2,8 C -1,1 C 70 % 1029,3 hPa 0,0 l/m 0 min 0 min 0 W/m 6,4 km/h (2 Bft) 95,74 %
01.03.2022 02:40 3,5 C 2,8 C -1,1 C 70 % 1029,3 hPa 0,0 l/m 0 min 0 min 0 W/m 6,4 km/h (2 Bft) 97,87 %
01.03.2022 02:42 3,5 C 2,8 C -1,1 C 70 % 1029,3 hPa 0,0 l/m 0 min 0 min 0 W/m 9,7 km/h (2 Bft) 95,74 %
01.03.2022 02:44 3,4 C 2,8 C -1,1 C 70 % 1029,3 hPa 0,0 l/m 0 min 0 min 0 W/m 9,7 km/h (2 Bft) 97,87 %
01.03.2022 02:46 3,4 C 2,8 C -1,1 C 70 % 1029,3 hPa 0,0 l/m 0 min 0 min 0 W/m 12,9 km/h (3 Bft) 97,83 %
01.03.2022 02:48 3,4 C 2,8 C -1,1 C 70 % 1029,3 hPa 0,0 l/m 0 min 0 min 0 W/m 12,9 km/h (3 Bft) 100,00 %
01.03.2022 02:50 3,4 C 2,8 C -1,1 C 70 % 1029,2 hPa 0,0 l/m 0 min 0 min 0 W/m 9,7 km/h (2 Bft) 97,87 %
01.03.2022 02:52 3,4 C 2,8 C -1,1 C 70 % 1029,2 hPa 0,0 l/m 0 min 0 min 0 W/m 6,4 km/h (2 Bft) 95,74 %
01.03.2022 02:54 3,4 C 2,2 C -1,1 C 70 % 1029,2 hPa 0,0 l/m 0 min 0 min 0 W/m 6,4 km/h (2 Bft) 97,87 %
01.03.2022 02:56 3,4 C 2,2 C -1,1 C 70 % 1029,2 hPa 0,0 l/m 0 min 0 min 0 W/m 12,9 km/h (3 Bft) 95,74 %
01.03.2022 02:58 3,3 C 2,2 C -1,1 C 70 % 1029,2 hPa 0,0 l/m 0 min 0 min 0 W/m 6,4 km/h (2 Bft) 97,83 %
01.03.2022 03:00 3,3 C 2,2 C -1,1 C 70 % 1029,2 hPa 0,0 l/m 0 min 0 min 0 W/m 6,4 km/h (2 Bft) 95,74 %
01.03.2022 03:02 3,3 C 2,2 C -1,1 C 70 % 1029,2 hPa 0,0 l/m 0 min 0 min 0 W/m 6,4 km/h (2 Bft) 100,00 %
01.03.2022 03:04 3,3 C 2,2 C -1,1 C 70 % 1029,2 hPa 0,0 l/m 0 min 0 min 0 W/m 6,4 km/h (2 Bft) 100,00 %
01.03.2022 03:06 3,2 C 2,2 C -1,1 C 71 % 1029,2 hPa 0,0 l/m 0 min 0 min 0 W/m 3,2 km/h (1 Bft) 100,00 %
01.03.2022 03:08 3,2 C 2,2 C -1,1 C 70 % 1029,2 hPa 0,0 l/m 0 min 0 min 0 W/m 3,2 km/h (1 Bft) 100,00 %
01.03.2022 03:10 3,2 C 2,2 C -1,7 C 71 % 1029,3 hPa 0,0 l/m 0 min 0 min 0 W/m 6,4 km/h (2 Bft) 97,87 %
01.03.2022 03:12 3,2 C 2,2 C -1,7 C 71 % 1029,2 hPa 0,0 l/m 0 min 0 min 0 W/m 3,2 km/h (1 Bft) 97,87 %
01.03.2022 03:14 3,1 C 2,2 C -1,7 C 71 % 1029,2 hPa 0,0 l/m 0 min 0 min 0 W/m 12,9 km/h (3 Bft) 97,87 %
01.03.2022 03:16 3,1 C 1,7 C -1,7 C 71 % 1029,1 hPa 0,0 l/m 0 min 0 min 0 W/m 3,2 km/h (1 Bft) 97,87 %
01.03.2022 03:18 3,1 C 1,7 C -1,7 C 71 % 1029,1 hPa 0,0 l/m 0 min 0 min 0 W/m 6,4 km/h (2 Bft) 97,87 %
01.03.2022 03:20 3,0 C 1,7 C -1,7 C 71 % 1029,2 hPa 0,0 l/m 0 min 0 min 0 W/m 6,4 km/h (2 Bft) 97,83 %
01.03.2022 03:22 3,0 C 1,7 C -1,7 C 71 % 1029,2 hPa 0,0 l/m 0 min 0 min 0 W/m 6,4 km/h (2 Bft) 93,62 %
01.03.2022 03:24 2,9 C 1,7 C -1,7 C 71 % 1029,2 hPa 0,0 l/m 0 min 0 min 0 W/m 6,4 km/h (2 Bft) 97,87 %
01.03.2022 03:26 2,9 C 1,7 C -1,7 C 72 % 1029,2 hPa 0,0 l/m 0 min 0 min 0 W/m 6,4 km/h (2 Bft) 97,87 %
01.03.2022 03:28 2,9 C 1,7 C -1,7 C 72 % 1029,1 hPa 0,0 l/m 0 min 0 min 0 W/m 6,4 km/h (2 Bft) 97,87 %
01.03.2022 03:30 2,8 C 1,7 C -1,7 C 72 % 1029,2 hPa 0,0 l/m 0 min 0 min 0 W/m 6,4 km/h (2 Bft) 97,87 %
01.03.2022 03:32 2,8 C 1,7 C -1,7 C 72 % 1029,1 hPa 0,0 l/m 0 min 0 min 0 W/m 6,4 km/h (2 Bft) 95,65 %
01.03.2022 03:34 2,8 C 1,7 C -1,7 C 72 % 1029,1 hPa 0,0 l/m 0 min 0 min 0 W/m 6,4 km/h (2 Bft) 97,87 %
01.03.2022 03:36 2,8 C 1,7 C -1,7 C 72 % 1029,1 hPa 0,0 l/m 0 min 0 min 0 W/m 6,4 km/h (2 Bft) 98,00 %
01.03.2022 03:38 2,7 C 1,7 C -1,7 C 72 % 1029,1 hPa 0,0 l/m 0 min 0 min 0 W/m 6,4 km/h (2 Bft) 97,87 %
01.03.2022 03:40 2,7 C 1,7 C -1,7 C 72 % 1029,1 hPa 0,0 l/m 0 min 0 min 0 W/m 12,9 km/h (3 Bft) 97,87 %
01.03.2022 03:42 2,7 C 1,7 C -1,7 C 72 % 1029,0 hPa 0,0 l/m 0 min 0 min 0 W/m 12,9 km/h (3 Bft) 97,83 %
01.03.2022 03:44 2,7 C 1,7 C -1,7 C 73 % 1029,0 hPa 0,0 l/m 0 min 0 min 0 W/m 3,2 km/h (1 Bft) 95,74 %
01.03.2022 03:46 2,6 C 1,7 C -1,7 C 73 % 1029,1 hPa 0,0 l/m 0 min 0 min 0 W/m 3,2 km/h (1 Bft) 100,00 %
01.03.2022 03:48 2,6 C 1,7 C -1,7 C 73 % 1029,1 hPa 0,0 l/m 0 min 0 min 0 W/m 6,4 km/h (2 Bft) 97,87 %
01.03.2022 03:50 2,6 C 1,7 C -1,7 C 73 % 1029,1 hPa 0,0 l/m 0 min 0 min 0 W/m 3,2 km/h (1 Bft) 100,00 %
01.03.2022 03:52 2,6 C 1,7 C -1,7 C 73 % 1029,1 hPa 0,0 l/m 0 min 0 min 0 W/m 3,2 km/h (1 Bft) 100,00 %
01.03.2022 03:54 2,6 C 1,1 C -1,7 C 73 % 1029,0 hPa 0,0 l/m 0 min 0 min 0 W/m 3,2 km/h (1 Bft) 97,83 %
01.03.2022 03:56 2,5 C 1,1 C -2,2 C 73 % 1029,0 hPa 0,0 l/m 0 min 0 min 0 W/m 6,4 km/h (2 Bft) 100,00 %
01.03.2022 03:58 2,5 C 1,7 C -1,7 C 73 % 1029,0 hPa 0,0 l/m 0 min 0 min 0 W/m 6,4 km/h (2 Bft) 95,74 %
01.03.2022 04:00 2,4 C 1,7 C -1,7 C 73 % 1029,0 hPa 0,0 l/m 0 min 0 min 0 W/m 6,4 km/h (2 Bft) 97,87 %
01.03.2022 04:02 2,4 C 1,7 C -1,7 C 73 % 1029,0 hPa 0,0 l/m 0 min 0 min 0 W/m 12,9 km/h (3 Bft) 100,00 %
01.03.2022 04:04 2,4 C 1,7 C -1,7 C 74 % 1028,9 hPa 0,0 l/m 0 min 0 min 0 W/m 6,4 km/h (2 Bft) 91,49 %
01.03.2022 04:06 2,4 C 1,7 C -1,7 C 74 % 1028,9 hPa 0,0 l/m 0 min 0 min 0 W/m 6,4 km/h (2 Bft) 97,87 %
01.03.2022 04:08 2,3 C 1,7 C -1,7 C 74 % 1029,0 hPa 0,0 l/m 0 min 0 min 0 W/m 12,9 km/h (3 Bft) 95,74 %
01.03.2022 04:10 2,3 C 1,7 C -1,7 C 74 % 1028,9 hPa 0,0 l/m 0 min 0 min 0 W/m 12,9 km/h (3 Bft) 97,87 %
01.03.2022 04:12 2,3 C 1,7 C -1,7 C 74 % 1028,9 hPa 0,0 l/m 0 min 0 min 0 W/m 12,9 km/h (3 Bft) 97,87 %
01.03.2022 04:14 2,3 C 1,7 C -1,7 C 74 % 1029,0 hPa 0,0 l/m 0 min 0 min 0 W/m 9,7 km/h (2 Bft) 97,87 %
01.03.2022 04:16 2,3 C 1,7 C -1,7 C 74 % 1028,9 hPa 0,0 l/m 0 min 0 min 0 W/m 12,9 km/h (3 Bft) 93,48 %
01.03.2022 04:18 2,3 C 1,7 C -1,7 C 74 % 1029,0 hPa 0,0 l/m 0 min 0 min 0 W/m 12,9 km/h (3 Bft) 93,62 %
01.03.2022 04:20 2,3 C 1,7 C -1,7 C 74 % 1029,0 hPa 0,0 l/m 0 min 0 min 0 W/m 12,9 km/h (3 Bft) 95,74 %
01.03.2022 04:22 2,3 C 1,7 C -1,7 C 74 % 1029,0 hPa 0,0 l/m 0 min 0 min 0 W/m 12,9 km/h (3 Bft) 93,62 %
01.03.2022 04:24 2,3 C 1,7 C -1,7 C 74 % 1028,9 hPa 0,0 l/m 0 min 0 min 0 W/m 12,9 km/h (3 Bft) 95,74 %
01.03.2022 04:26 2,3 C 1,7 C -1,7 C 74 % 1028,9 hPa 0,0 l/m 0 min 0 min 0 W/m 12,9 km/h (3 Bft) 95,74 %
01.03.2022 04:28 2,3 C 1,7 C -1,7 C 74 % 1028,9 hPa 0,0 l/m 0 min 0 min 0 W/m 16,1 km/h (3 Bft) 95,65 %
01.03.2022 04:30 2,2 C 1,7 C -1,7 C 74 % 1028,9 hPa 0,0 l/m 0 min 0 min 0 W/m 12,9 km/h (3 Bft) 93,62 %
01.03.2022 04:32 2,2 C 1,7 C -1,7 C 74 % 1028,8 hPa 0,0 l/m 0 min 0 min 0 W/m 16,1 km/h (3 Bft) 93,62 %
01.03.2022 04:34 2,2 C 1,7 C -1,7 C 74 % 1028,8 hPa 0,0 l/m 0 min 0 min 0 W/m 12,9 km/h (3 Bft) 93,62 %
01.03.2022 04:36 2,2 C 1,1 C -2,2 C 74 % 1028,8 hPa 0,0 l/m 0 min 0 min 0 W/m 16,1 km/h (3 Bft) 95,74 %
01.03.2022 04:38 2,2 C 1,1 C -2,2 C 74 % 1028,8 hPa 0,0 l/m 0 min 0 min 0 W/m 16,1 km/h (3 Bft) 93,62 %
01.03.2022 04:40 2,2 C 1,1 C -2,2 C 74 % 1028,8 hPa 0,0 l/m 0 min 0 min 0 W/m 16,1 km/h (3 Bft) 95,65 %
01.03.2022 04:42 2,2 C 1,1 C -2,2 C 74 % 1028,7 hPa 0,0 l/m 0 min 0 min 0 W/m 12,9 km/h (3 Bft) 95,74 %
01.03.2022 04:44 2,1 C 1,1 C -2,2 C 75 % 1028,8 hPa 0,0 l/m 0 min 0 min 0 W/m 12,9 km/h (3 Bft) 95,74 %
01.03.2022 04:46 2,1 C 1,1 C -2,2 C 74 % 1028,8 hPa 0,0 l/m 0 min 0 min 0 W/m 12,9 km/h (3 Bft) 97,87 %
01.03.2022 04:48 2,1 C 1,1 C -2,2 C 75 % 1028,8 hPa 0,0 l/m 0 min 0 min 0 W/m 16,1 km/h (3 Bft) 97,87 %
01.03.2022 04:50 2,1 C 1,1 C -2,2 C 75 % 1028,8 hPa 0,0 l/m 0 min 0 min 0 W/m 12,9 km/h (3 Bft) 95,74 %
01.03.2022 04:52 2,1 C 1,1 C -2,2 C 75 % 1028,8 hPa 0,0 l/m 0 min 0 min 0 W/m 12,9 km/h (3 Bft) 95,65 %
01.03.2022 04:54 2,1 C 1,1 C -2,2 C 75 % 1028,8 hPa 0,0 l/m 0 min 0 min 0 W/m 12,9 km/h (3 Bft) 95,74 %
01.03.2022 04:56 2,1 C 1,1 C -2,2 C 75 % 1028,8 hPa 0,0 l/m 0 min 0 min 0 W/m 12,9 km/h (3 Bft) 100,00 %
01.03.2022 04:58 2,1 C 1,1 C -2,2 C 75 % 1028,7 hPa 0,0 l/m 0 min 0 min 0 W/m 16,1 km/h (3 Bft) 100,00 %
01.03.2022 05:00 2,0 C 1,1 C -2,2 C 75 % 1028,8 hPa 0,0 l/m 0 min 0 min 0 W/m 12,9 km/h (3 Bft) 100,00 %
01.03.2022 05:02 2,0 C 1,1 C -2,2 C 75 % 1028,8 hPa 0,0 l/m 0 min 0 min 0 W/m 6,4 km/h (2 Bft) 97,87 %
01.03.2022 05:04 2,0 C 1,1 C -2,2 C 75 % 1028,9 hPa 0,0 l/m 0 min 0 min 0 W/m 6,4 km/h (2 Bft) 100,00 %
01.03.2022 05:06 2,0 C 1,1 C -2,2 C 75 % 1028,9 hPa 0,0 l/m 0 min 0 min 0 W/m 12,9 km/h (3 Bft) 100,00 %
01.03.2022 05:08 2,0 C 1,1 C -2,2 C 75 % 1028,9 hPa 0,0 l/m 0 min 0 min 0 W/m 12,9 km/h (3 Bft) 97,87 %
01.03.2022 05:10 2,0 C 1,1 C -2,2 C 75 % 1028,9 hPa 0,0 l/m 0 min 0 min 0 W/m 16,1 km/h (3 Bft) 100,00 %
01.03.2022 05:12 2,1 C 1,1 C -2,2 C 75 % 1028,9 hPa 0,0 l/m 0 min 0 min 0 W/m 16,1 km/h (3 Bft) 97,87 %
01.03.2022 05:14 2,1 C 1,7 C -1,7 C 75 % 1028,9 hPa 0,0 l/m 0 min 0 min 0 W/m 22,5 km/h (4 Bft) 100,00 %
01.03.2022 05:16 2,1 C 1,7 C -1,7 C 75 % 1028,9 hPa 0,0 l/m 0 min 0 min 0 W/m 9,7 km/h (2 Bft) 100,00 %
01.03.2022 05:18 2,1 C 1,1 C -2,2 C 75 % 1028,9 hPa 0,0 l/m 0 min 0 min 0 W/m 12,9 km/h (3 Bft) 97,87 %
01.03.2022 05:20 2,1 C 1,7 C -1,7 C 75 % 1028,9 hPa 0,0 l/m 0 min 0 min 0 W/m 12,9 km/h (3 Bft) 97,87 %
01.03.2022 05:22 2,1 C 1,7 C -1,7 C 75 % 1028,9 hPa 0,0 l/m 0 min 0 min 0 W/m 6,4 km/h (2 Bft) 97,87 %
01.03.2022 05:24 2,1 C 1,7 C -1,7 C 75 % 1028,9 hPa 0,0 l/m 0 min 0 min 0 W/m 9,7 km/h (2 Bft) 97,87 %
01.03.2022 05:26 2,1 C 1,7 C -1,7 C 75 % 1028,9 hPa 0,0 l/m 0 min 0 min 0 W/m 16,1 km/h (3 Bft) 97,83 %
01.03.2022 05:28 2,1 C 1,7 C -1,7 C 75 % 1028,9 hPa 0,0 l/m 0 min 0 min 0 W/m 12,9 km/h (3 Bft) 97,87 %
01.03.2022 05:30 2,1 C 1,7 C -1,7 C 74 % 1028,8 hPa 0,0 l/m 0 min 0 min 0 W/m 16,1 km/h (3 Bft) 97,87 %
01.03.2022 05:32 2,1 C 1,7 C -1,7 C 74 % 1028,8 hPa 0,0 l/m 0 min 0 min 0 W/m 16,1 km/h (3 Bft) 95,74 %
01.03.2022 05:34 2,1 C 1,7 C -1,7 C 74 % 1028,8 hPa 0,0 l/m 0 min 0 min 0 W/m 16,1 km/h (3 Bft) 95,74 %
01.03.2022 05:36 2,2 C 1,7 C -1,7 C 74 % 1028,8 hPa 0,0 l/m 0 min 0 min 0 W/m 16,1 km/h (3 Bft) 97,87 %
01.03.2022 05:38 2,2 C 1,7 C -1,7 C 74 % 1028,8 hPa 0,0 l/m 0 min 0 min 0 W/m 12,9 km/h (3 Bft) 97,83 %
01.03.2022 05:40 2,2 C 1,7 C -1,7 C 74 % 1028,8 hPa 0,0 l/m 0 min 0 min 0 W/m 6,4 km/h (2 Bft) 97,87 %
01.03.2022 05:42 2,2 C 1,7 C -1,7 C 74 % 1028,8 hPa 0,0 l/m 0 min 0 min 0 W/m 12,9 km/h (3 Bft) 94,44 %
01.03.2022 05:44 2,2 C 1,7 C -1,7 C 74 % 1028,8 hPa 0,0 l/m 0 min 0 min 0 W/m 16,1 km/h (3 Bft) 97,87 %
01.03.2022 05:46 2,2 C 1,7 C -1,7 C 74 % 1028,8 hPa 0,0 l/m 0 min 0 min 0 W/m 6,4 km/h (2 Bft) 98,31 %
01.03.2022 05:48 2,2 C 1,7 C -1,7 C 74 % 1028,8 hPa 0,0 l/m 0 min 0 min 0 W/m 12,9 km/h (3 Bft) 97,14 %
01.03.2022 05:50 2,2 C 1,7 C -1,7 C 74 % 1028,8 hPa 0,0 l/m 0 min 0 min 0 W/m 12,9 km/h (3 Bft) 97,87 %
01.03.2022 05:52 2,2 C 1,7 C -1,7 C 74 % 1028,8 hPa 0,0 l/m 0 min 0 min 0 W/m 6,4 km/h (2 Bft) 95,65 %
01.03.2022 05:54 2,2 C 1,7 C -2,2 C 74 % 1028,8 hPa 0,0 l/m 0 min 0 min 0 W/m 6,4 km/h (2 Bft) 97,87 %
01.03.2022 05:56 2,2 C 1,1 C -2,2 C 74 % 1028,8 hPa 0,0 l/m 0 min 0 min 0 W/m 6,4 km/h (2 Bft) 100,00 %
01.03.2022 05:58 2,2 C 1,1 C -2,2 C 74 % 1028,8 hPa 0,0 l/m 0 min 0 min 0 W/m 6,4 km/h (2 Bft) 100,00 %
01.03.2022 06:00 2,2 C 1,1 C -2,2 C 74 % 1028,9 hPa 0,0 l/m 0 min 0 min 0 W/m 12,9 km/h (3 Bft) 97,87 %
01.03.2022 06:02 2,2 C 1,1 C -2,2 C 75 % 1028,9 hPa 0,0 l/m 0 min 0 min 0 W/m 12,9 km/h (3 Bft) 97,92 %
01.03.2022 06:04 2,2 C 1,1 C -2,2 C 75 % 1028,8 hPa 0,0 l/m 0 min 0 min 0 W/m 6,4 km/h (2 Bft) 97,83 %
01.03.2022 06:08 2,2 C 1,7 C -2,2 C 75 % 1028,8 hPa 0,0 l/m 0 min 0 min 0 W/m 12,9 km/h (3 Bft) 97,89 %
01.03.2022 06:10 2,1 C 1,7 C -2,2 C 75 % 1028,9 hPa 0,0 l/m 0 min 0 min 0 W/m 16,1 km/h (3 Bft) 97,87 %
01.03.2022 06:12 2,1 C 1,7 C -2,2 C 75 % 1028,8 hPa 0,0 l/m 0 min 0 min 0 W/m 12,9 km/h (3 Bft) 97,87 %
01.03.2022 06:14 2,2 C 1,7 C -1,7 C 75 % 1028,8 hPa 0,0 l/m 0 min 0 min 0 W/m 12,9 km/h (3 Bft) 97,83 %
01.03.2022 06:16 2,2 C 1,7 C -1,7 C 75 % 1028,8 hPa 0,0 l/m 0 min 0 min 0 W/m 12,9 km/h (3 Bft) 97,87 %
01.03.2022 06:18 2,2 C 1,7 C -1,7 C 75 % 1028,9 hPa 0,0 l/m 0 min 0 min 0 W/m 6,4 km/h (2 Bft) 97,87 %
01.03.2022 06:20 2,2 C 1,7 C -1,7 C 75 % 1028,9 hPa 0,0 l/m 0 min 0 min 0 W/m 12,9 km/h (3 Bft) 97,87 %
01.03.2022 06:22 2,2 C 1,7 C -1,7 C 75 % 1028,9 hPa 0,0 l/m 0 min 0 min 0 W/m 6,4 km/h (2 Bft) 97,87 %
01.03.2022 06:24 2,2 C 1,7 C -1,7 C 75 % 1029,0 hPa 0,0 l/m 0 min 0 min 0 W/m 6,4 km/h (2 Bft) 97,87 %
01.03.2022 06:26 2,2 C 1,7 C -1,7 C 75 % 1029,0 hPa 0,0 l/m 0 min 0 min 0 W/m 9,7 km/h (2 Bft) 97,87 %
01.03.2022 06:28 2,2 C 1,7 C -1,7 C 75 % 1029,0 hPa 0,0 l/m 0 min 0 min 0 W/m 16,1 km/h (3 Bft) 97,83 %
01.03.2022 06:30 2,3 C 1,7 C -1,7 C 75 % 1029,0 hPa 0,0 l/m 0 min 0 min 0 W/m 12,9 km/h (3 Bft) 97,87 %
01.03.2022 06:32 2,3 C 1,7 C -1,7 C 75 % 1029,1 hPa 0,0 l/m 0 min 0 min 0 W/m 6,4 km/h (2 Bft) 97,87 %
01.03.2022 06:34 2,3 C 1,7 C -1,7 C 75 % 1029,1 hPa 0,0 l/m 0 min 0 min 0 W/m 16,1 km/h (3 Bft) 100,00 %
01.03.2022 06:36 2,3 C 1,7 C -1,7 C 75 % 1029,0 hPa 0,0 l/m 0 min 0 min 0 W/m 12,9 km/h (3 Bft) 100,00 %
01.03.2022 06:38 2,3 C 1,7 C -1,7 C 75 % 1029,0 hPa 0,0 l/m 0 min 0 min 0 W/m 12,9 km/h (3 Bft) 100,00 %
01.03.2022 06:40 2,3 C 1,7 C -1,7 C 75 % 1029,0 hPa 0,0 l/m 0 min 0 min 0 W/m 16,1 km/h (3 Bft) 100,00 %
01.03.2022 06:42 2,3 C 1,7 C -1,7 C 75 % 1028,9 hPa 0,0 l/m 0 min 0 min 0 W/m 12,9 km/h (3 Bft) 100,00 %
01.03.2022 06:44 2,3 C 1,7 C -1,7 C 75 % 1029,0 hPa 0,0 l/m 0 min 0 min 0 W/m 3,2 km/h (1 Bft) 100,00 %
01.03.2022 06:46 2,3 C 1,7 C -1,7 C 75 % 1029,0 hPa 0,0 l/m 0 min 0 min 0 W/m 6,4 km/h (2 Bft) 78,72 %
01.03.2022 06:48 2,4 C 1,7 C -1,7 C 75 % 1029,0 hPa 0,0 l/m 0 min 0 min 0 W/m 16,1 km/h (3 Bft) 73,91 %
01.03.2022 06:50 2,4 C 1,7 C -1,7 C 75 % 1029,0 hPa 0,0 l/m 0 min 0 min 0 W/m 16,1 km/h (3 Bft) 100,00 %
01.03.2022 06:52 2,4 C 1,7 C -1,7 C 75 % 1029,0 hPa 0,0 l/m 0 min 0 min 0 W/m 12,9 km/h (3 Bft) 100,00 %
01.03.2022 06:54 2,4 C 1,7 C -1,7 C 74 % 1029,0 hPa 0,0 l/m 0 min 0 min 0 W/m 19,3 km/h (3 Bft) 100,00 %
01.03.2022 06:56 2,4 C 1,7 C -1,7 C 74 % 1029,0 hPa 0,0 l/m 0 min 0 min 0 W/m 16,1 km/h (3 Bft) 97,87 %
01.03.2022 06:58 2,4 C 1,7 C -1,7 C 74 % 1029,0 hPa 0,0 l/m 0 min 0 min 0 W/m 16,1 km/h (3 Bft) 97,87 %
01.03.2022 07:00 2,4 C 1,7 C -1,7 C 74 % 1029,0 hPa 0,0 l/m 0 min 0 min 0 W/m 22,5 km/h (4 Bft) 97,83 %
01.03.2022 07:02 2,4 C 1,7 C -1,7 C 74 % 1029,0 hPa 0,0 l/m 0 min 0 min 0 W/m 16,1 km/h (3 Bft) 100,00 %
01.03.2022 07:04 2,4 C 1,7 C -1,7 C 74 % 1028,9 hPa 0,0 l/m 0 min 0 min 0 W/m 12,9 km/h (3 Bft) 100,00 %
01.03.2022 07:06 2,4 C 1,7 C -1,7 C 74 % 1028,9 hPa 0,0 l/m 0 min 0 min 0 W/m 12,9 km/h (3 Bft) 100,00 %
01.03.2022 07:08 2,4 C 1,7 C -1,7 C 74 % 1028,9 hPa 0,0 l/m 0 min 0 min 0 W/m 16,1 km/h (3 Bft) 97,87 %
01.03.2022 07:10 2,4 C 1,7 C -1,7 C 74 % 1028,9 hPa 0,0 l/m 0 min 0 min 0 W/m 12,9 km/h (3 Bft) 97,87 %
01.03.2022 07:12 2,4 C 2,2 C -1,7 C 74 % 1028,9 hPa 0,0 l/m 0 min 0 min 2 W/m 16,1 km/h (3 Bft) 97,83 %
01.03.2022 07:14 2,5 C 2,2 C -1,7 C 74 % 1028,9 hPa 0,0 l/m 0 min 0 min 8 W/m 16,1 km/h (3 Bft) 97,87 %
01.03.2022 07:16 2,5 C 2,2 C -1,7 C 74 % 1028,9 hPa 0,0 l/m 0 min 0 min 10 W/m 16,1 km/h (3 Bft) 97,87 %
01.03.2022 07:18 2,5 C 2,2 C -1,7 C 74 % 1028,9 hPa 0,0 l/m 0 min 0 min 11 W/m 19,3 km/h (3 Bft) 94,00 %
01.03.2022 07:20 2,5 C 2,2 C -1,7 C 74 % 1028,9 hPa 0,0 l/m 0 min 0 min 12 W/m 12,9 km/h (3 Bft) 97,87 %
01.03.2022 07:22 2,6 C 2,2 C -1,7 C 74 % 1028,9 hPa 0,0 l/m 0 min 0 min 12 W/m 16,1 km/h (3 Bft) 97,83 %
01.03.2022 07:24 2,6 C 2,2 C -1,7 C 74 % 1028,8 hPa 0,0 l/m 0 min 0 min 14 W/m 19,3 km/h (3 Bft) 97,87 %
01.03.2022 07:26 2,6 C 2,2 C -1,7 C 74 % 1028,9 hPa 0,0 l/m 0 min 0 min 12 W/m 22,5 km/h (4 Bft) 95,74 %
01.03.2022 07:28 2,6 C 2,2 C -1,7 C 74 % 1028,9 hPa 0,0 l/m 0 min 0 min 11 W/m 16,1 km/h (3 Bft) 97,87 %
01.03.2022 07:30 2,6 C 2,2 C -1,7 C 74 % 1029,0 hPa 0,0 l/m 0 min 0 min 12 W/m 16,1 km/h (3 Bft) 95,74 %
01.03.2022 07:32 2,6 C 2,2 C -1,7 C 74 % 1028,9 hPa 0,0 l/m 0 min 0 min 14 W/m 19,3 km/h (3 Bft) 97,87 %
01.03.2022 07:34 2,6 C 2,2 C -1,7 C 74 % 1028,9 hPa 0,0 l/m 0 min 0 min 14 W/m 16,1 km/h (3 Bft) 95,65 %
01.03.2022 07:36 2,7 C 2,2 C -1,7 C 74 % 1029,0 hPa 0,0 l/m 0 min 0 min 15 W/m 16,1 km/h (3 Bft) 93,62 %
01.03.2022 07:38 2,7 C 2,2 C -1,7 C 74 % 1029,0 hPa 0,0 l/m 0 min 0 min 17 W/m 16,1 km/h (3 Bft) 95,74 %
01.03.2022 07:40 2,7 C 2,2 C -1,7 C 73 % 1029,0 hPa 0,0 l/m 0 min 0 min 18 W/m 12,9 km/h (3 Bft) 95,74 %
01.03.2022 07:42 2,7 C 2,2 C -1,7 C 73 % 1029,0 hPa 0,0 l/m 0 min 0 min 19 W/m 16,1 km/h (3 Bft) 95,74 %
01.03.2022 07:44 2,7 C 2,2 C -1,7 C 73 % 1029,0 hPa 0,0 l/m 0 min 0 min 19 W/m 12,9 km/h (3 Bft) 94,34 %
01.03.2022 07:46 2,7 C 2,2 C -1,7 C 73 % 1029,0 hPa 0,0 l/m 0 min 0 min 21 W/m 16,1 km/h (3 Bft) 94,74 %
01.03.2022 07:48 2,7 C 2,2 C -1,7 C 73 % 1029,0 hPa 0,0 l/m 0 min 0 min 22 W/m 19,3 km/h (3 Bft) 95,92 %
01.03.2022 07:50 2,7 C 2,2 C -1,1 C 73 % 1028,9 hPa 0,0 l/m 0 min 0 min 23 W/m 12,9 km/h (3 Bft) 92,45 %
01.03.2022 07:52 2,8 C 2,2 C -1,1 C 73 % 1029,0 hPa 0,0 l/m 0 min 0 min 23 W/m 16,1 km/h (3 Bft) 100,00 %
01.03.2022 07:54 2,8 C 2,2 C -1,1 C 73 % 1029,0 hPa 0,0 l/m 0 min 0 min 23 W/m 19,3 km/h (3 Bft) 92,00 %
01.03.2022 07:56 2,8 C 2,2 C -1,1 C 73 % 1029,0 hPa 0,0 l/m 0 min 0 min 23 W/m 19,3 km/h (3 Bft) 93,62 %
01.03.2022 07:58 2,8 C 2,2 C -1,1 C 73 % 1029,0 hPa 0,0 l/m 0 min 0 min 25 W/m 19,3 km/h (3 Bft) 94,23 %
01.03.2022 08:00 2,8 C 2,2 C -1,1 C 73 % 1029,0 hPa 0,0 l/m 0 min 0 min 26 W/m 19,3 km/h (3 Bft) 94,74 %
01.03.2022 08:02 2,8 C 2,2 C -1,1 C 73 % 1028,9 hPa 0,0 l/m 0 min 0 min 27 W/m 19,3 km/h (3 Bft) 94,00 %
01.03.2022 08:04 2,8 C 2,2 C -1,1 C 73 % 1029,0 hPa 0,0 l/m 0 min 0 min 29 W/m 16,1 km/h (3 Bft) 95,74 %
01.03.2022 08:06 2,8 C 2,2 C -1,1 C 73 % 1029,0 hPa 0,0 l/m 0 min 0 min 32 W/m 12,9 km/h (3 Bft) 94,34 %
01.03.2022 08:08 2,8 C 2,2 C -1,1 C 73 % 1029,0 hPa 0,0 l/m 0 min 0 min 33 W/m 22,5 km/h (4 Bft) 94,74 %
01.03.2022 08:10 2,8 C 2,2 C -1,1 C 73 % 1029,0 hPa 0,0 l/m 0 min 0 min 37 W/m 25,7 km/h (4 Bft) 95,65 %
01.03.2022 08:12 2,8 C 2,2 C -1,1 C 73 % 1029,0 hPa 0,0 l/m 0 min 0 min 39 W/m 16,1 km/h (3 Bft) 94,00 %
01.03.2022 08:14 2,8 C 2,2 C -1,1 C 73 % 1029,0 hPa 0,0 l/m 0 min 0 min 40 W/m 19,3 km/h (3 Bft) 95,74 %
01.03.2022 08:16 2,9 C 2,2 C -1,1 C 73 % 1029,0 hPa 0,0 l/m 0 min 0 min 42 W/m 19,3 km/h (3 Bft) 96,23 %
01.03.2022 08:18 2,9 C 2,2 C -1,1 C 73 % 1029,0 hPa 0,0 l/m 0 min 0 min 42 W/m 25,7 km/h (4 Bft) 97,37 %
01.03.2022 08:20 2,9 C 2,8 C -1,1 C 73 % 1029,1 hPa 0,0 l/m 0 min 0 min 43 W/m 12,9 km/h (3 Bft) 97,96 %
01.03.2022 08:22 2,9 C 2,8 C -1,1 C 73 % 1029,1 hPa 0,0 l/m 0 min 0 min 45 W/m 22,5 km/h (4 Bft) 97,87 %
01.03.2022 08:24 2,9 C 2,8 C -1,1 C 72 % 1029,1 hPa 0,0 l/m 0 min 0 min 46 W/m 16,1 km/h (3 Bft) 98,11 %
01.03.2022 08:26 2,9 C 2,8 C -1,1 C 72 % 1029,1 hPa 0,0 l/m 0 min 0 min 46 W/m 12,9 km/h (3 Bft) 94,74 %
01.03.2022 08:28 2,9 C 2,8 C -1,1 C 73 % 1029,1 hPa 0,0 l/m 0 min 0 min 46 W/m 12,9 km/h (3 Bft) 98,00 %
01.03.2022 08:30 2,9 C 2,8 C -1,1 C 73 % 1029,1 hPa 0,0 l/m 0 min 0 min 46 W/m 19,3 km/h (3 Bft) 100,00 %
01.03.2022 08:32 2,9 C 2,8 C -1,1 C 72 % 1029,1 hPa 0,0 l/m 0 min 0 min 46 W/m 16,1 km/h (3 Bft) 97,22 %
01.03.2022 08:34 2,9 C 2,8 C -1,1 C 73 % 1029,1 hPa 0,0 l/m 0 min 0 min 47 W/m 19,3 km/h (3 Bft) 100,00 %
01.03.2022 08:36 2,9 C 2,8 C -1,1 C 72 % 1029,1 hPa 0,0 l/m 0 min 0 min 48 W/m 16,1 km/h (3 Bft) 97,92 %
01.03.2022 08:38 2,9 C 2,8 C -1,1 C 72 % 1029,1 hPa 0,0 l/m 0 min 0 min 52 W/m 12,9 km/h (3 Bft) 100,00 %
01.03.2022 08:40 3,0 C 2,8 C -1,1 C 72 % 1029,1 hPa 0,0 l/m 0 min 0 min 55 W/m 12,9 km/h (3 Bft) 100,00 %
01.03.2022 08:42 3,0 C 2,8 C -1,1 C 72 % 1029,1 hPa 0,0 l/m 0 min 0 min 59 W/m 16,1 km/h (3 Bft) 100,00 %
01.03.2022 08:44 3,0 C 2,8 C -1,1 C 73 % 1029,1 hPa 0,0 l/m 0 min 0 min 63 W/m 12,9 km/h (3 Bft) 100,00 %
01.03.2022 08:46 3,0 C 2,8 C -1,1 C 72 % 1029,1 hPa 0,0 l/m 0 min 0 min 68 W/m 16,1 km/h (3 Bft) 100,00 %
01.03.2022 08:48 3,0 C 2,8 C -1,1 C 72 % 1029,1 hPa 0,0 l/m 0 min 0 min 75 W/m 22,5 km/h (4 Bft) 100,00 %
01.03.2022 08:50 3,0 C 2,8 C -1,1 C 72 % 1029,1 hPa 0,0 l/m 0 min 0 min 80 W/m 16,1 km/h (3 Bft) 100,00 %
01.03.2022 08:52 3,0 C 2,8 C -1,1 C 72 % 1029,1 hPa 0,0 l/m 0 min 0 min 83 W/m 16,1 km/h (3 Bft) 100,00 %
01.03.2022 08:54 3,1 C 2,8 C -1,1 C 72 % 1029,2 hPa 0,0 l/m 0 min 0 min 85 W/m 16,1 km/h (3 Bft) 100,00 %
01.03.2022 08:56 3,1 C 2,8 C -1,1 C 72 % 1029,1 hPa 0,0 l/m 0 min 0 min 92 W/m 16,1 km/h (3 Bft) 100,00 %
01.03.2022 08:58 3,1 C 3,3 C -1,1 C 72 % 1029,2 hPa 0,0 l/m 0 min 0 min 107 W/m 12,9 km/h (3 Bft) 100,00 %
01.03.2022 09:00 3,1 C 3,3 C -1,1 C 72 % 1029,2 hPa 0,0 l/m 2 min 0 min 134 W/m 16,1 km/h (3 Bft) 100,00 %
01.03.2022 09:02 3,1 C 3,9 C -1,1 C 72 % 1029,2 hPa 0,0 l/m 2 min 0 min 130 W/m 19,3 km/h (3 Bft) 97,37 %
01.03.2022 09:04 3,2 C 3,9 C -0,6 C 72 % 1029,2 hPa 0,0 l/m 2 min 0 min 126 W/m 16,1 km/h (3 Bft) 100,00 %
01.03.2022 09:06 3,2 C 3,9 C -0,6 C 72 % 1029,2 hPa 0,0 l/m 2 min 0 min 154 W/m 19,3 km/h (3 Bft) 100,00 %
01.03.2022 09:08 3,3 C 4,4 C -0,6 C 72 % 1029,2 hPa 0,0 l/m 2 min 0 min 163 W/m 16,1 km/h (3 Bft) 100,00 %
01.03.2022 09:10 3,3 C 3,9 C -0,6 C 72 % 1029,1 hPa 0,0 l/m 2 min 0 min 150 W/m 16,1 km/h (3 Bft) 100,00 %
01.03.2022 09:12 3,4 C 3,9 C -0,6 C 72 % 1029,1 hPa 0,0 l/m 2 min 0 min 153 W/m 16,1 km/h (3 Bft) 100,00 %
01.03.2022 09:14 3,4 C 3,9 C -0,6 C 71 % 1029,1 hPa 0,0 l/m 2 min 0 min 166 W/m 25,7 km/h (4 Bft) 100,00 %
01.03.2022 09:16 3,5 C 4,4 C 0,0 C 71 % 1029,1 hPa 0,0 l/m 2 min 0 min 167 W/m 19,3 km/h (3 Bft) 95,74 %
01.03.2022 09:18 3,6 C 4,4 C 0,0 C 71 % 1029,2 hPa 0,0 l/m 2 min 0 min 184 W/m 12,9 km/h (3 Bft) 100,00 %
01.03.2022 09:20 3,6 C 4,4 C 0,0 C 70 % 1029,2 hPa 0,0 l/m 2 min 0 min 200 W/m 22,5 km/h (4 Bft) 100,00 %
01.03.2022 09:22 3,7 C 4,4 C 0,0 C 70 % 1029,2 hPa 0,0 l/m 2 min 0 min 173 W/m 16,1 km/h (3 Bft) 100,00 %
01.03.2022 09:24 3,8 C 4,4 C 0,0 C 70 % 1029,3 hPa 0,0 l/m 2 min 0 min 185 W/m 22,5 km/h (4 Bft) 100,00 %
01.03.2022 09:26 3,8 C 5,0 C 0,0 C 70 % 1029,3 hPa 0,0 l/m 2 min 0 min 190 W/m 16,1 km/h (3 Bft) 97,87 %
01.03.2022 09:28 3,9 C 4,4 C 0,0 C 70 % 1029,3 hPa 0,0 l/m 2 min 0 min 208 W/m 19,3 km/h (3 Bft) 100,00 %
01.03.2022 09:30 3,9 C 5,0 C 0,6 C 69 % 1029,3 hPa 0,0 l/m 2 min 0 min 202 W/m 12,9 km/h (3 Bft) 97,87 %
01.03.2022 09:32 4,0 C 5,0 C 0,6 C 69 % 1029,3 hPa 0,0 l/m 2 min 0 min 202 W/m 19,3 km/h (3 Bft) 43,24 %
01.03.2022 09:34 4,1 C 5,0 C 0,6 C 68 % 1029,3 hPa 0,0 l/m 2 min 0 min 226 W/m 22,5 km/h (4 Bft) 100,00 %
01.03.2022 09:36 4,1 C 5,0 C 0,6 C 68 % 1029,3 hPa 0,0 l/m 2 min 0 min 202 W/m 19,3 km/h (3 Bft) 100,00 %
01.03.2022 09:38 4,2 C 4,4 C 0,6 C 68 % 1029,3 hPa 0,0 l/m 2 min 0 min 180 W/m 25,7 km/h (4 Bft) 100,00 %
01.03.2022 09:40 4,2 C 4,4 C 0,6 C 68 % 1029,4 hPa 0,0 l/m 2 min 0 min 178 W/m 19,3 km/h (3 Bft) 100,00 %
01.03.2022 09:42 4,3 C 4,4 C 0,6 C 68 % 1029,3 hPa 0,0 l/m 2 min 0 min 179 W/m 19,3 km/h (3 Bft) 100,00 %
01.03.2022 09:44 4,3 C 4,4 C 0,6 C 68 % 1029,3 hPa 0,0 l/m 2 min 0 min 178 W/m 16,1 km/h (3 Bft) 100,00 %
01.03.2022 09:46 4,3 C 4,4 C 0,6 C 67 % 1029,4 hPa 0,0 l/m 2 min 0 min 177 W/m 22,5 km/h (4 Bft) 97,87 %
01.03.2022 09:48 4,3 C 4,4 C 0,6 C 67 % 1029,4 hPa 0,0 l/m 2 min 0 min 179 W/m 29,0 km/h (5 Bft) 100,00 %
01.03.2022 09:50 4,4 C 4,4 C 0,6 C 66 % 1029,5 hPa 0,0 l/m 2 min 0 min 192 W/m 16,1 km/h (3 Bft) 100,00 %
01.03.2022 09:52 4,4 C 4,4 C 0,6 C 66 % 1029,6 hPa 0,0 l/m 2 min 0 min 209 W/m 25,7 km/h (4 Bft) 100,00 %
01.03.2022 09:54 4,4 C 4,4 C 0,6 C 66 % 1029,6 hPa 0,0 l/m 2 min 0 min 203 W/m 19,3 km/h (3 Bft) 97,87 %
01.03.2022 09:56 4,4 C 4,4 C 0,6 C 66 % 1029,6 hPa 0,0 l/m 2 min 0 min 201 W/m 22,5 km/h (4 Bft) 97,83 %
01.03.2022 09:58 4,4 C 4,4 C 0,6 C 66 % 1029,6 hPa 0,0 l/m 2 min 0 min 205 W/m 16,1 km/h (3 Bft) 97,87 %
01.03.2022 10:00 4,5 C 5,0 C 0,6 C 66 % 1029,6 hPa 0,0 l/m 2 min 0 min 210 W/m 19,3 km/h (3 Bft) 95,74 %
01.03.2022 10:02 4,5 C 5,0 C 0,6 C 66 % 1029,6 hPa 0,0 l/m 2 min 0 min 205 W/m 19,3 km/h (3 Bft) 95,92 %
01.03.2022 10:04 4,6 C 5,0 C 0,6 C 66 % 1029,5 hPa 0,0 l/m 0 min 0 min 181 W/m 19,3 km/h (3 Bft) 93,62 %
01.03.2022 10:06 4,6 C 4,4 C 0,6 C 66 % 1029,3 hPa 0,0 l/m 0 min 0 min 171 W/m 25,7 km/h (4 Bft) 97,83 %
01.03.2022 10:08 4,6 C 4,4 C 0,6 C 66 % 1029,3 hPa 0,0 l/m 0 min 0 min 166 W/m 16,1 km/h (3 Bft) 95,74 %
01.03.2022 10:10 4,6 C 4,4 C 0,6 C 66 % 1029,3 hPa 0,0 l/m 0 min 0 min 162 W/m 19,3 km/h (3 Bft) 95,74 %
01.03.2022 10:12 4,6 C 4,4 C 0,6 C 66 % 1029,3 hPa 0,0 l/m 0 min 0 min 153 W/m 22,5 km/h (4 Bft) 91,49 %
01.03.2022 10:14 4,6 C 4,4 C 0,6 C 66 % 1029,3 hPa 0,0 l/m 0 min 0 min 143 W/m 29,0 km/h (5 Bft) 95,74 %
01.03.2022 10:16 4,6 C 4,4 C 0,6 C 66 % 1029,3 hPa 0,0 l/m 0 min 0 min 138 W/m 22,5 km/h (4 Bft) 95,74 %
01.03.2022 10:18 4,6 C 4,4 C 0,6 C 66 % 1029,2 hPa 0,0 l/m 0 min 0 min 128 W/m 19,3 km/h (3 Bft) 95,65 %
01.03.2022 10:20 4,6 C 4,4 C 0,6 C 66 % 1029,2 hPa 0,0 l/m 0 min 0 min 119 W/m 22,5 km/h (4 Bft) 95,74 %
01.03.2022 10:22 4,6 C 4,4 C 0,6 C 66 % 1029,1 hPa 0,0 l/m 0 min 0 min 118 W/m 25,7 km/h (4 Bft) 91,49 %
01.03.2022 10:24 4,6 C 4,4 C 0,6 C 66 % 1029,2 hPa 0,0 l/m 0 min 0 min 133 W/m 22,5 km/h (4 Bft) 93,62 %
01.03.2022 10:26 4,6 C 4,4 C 0,6 C 66 % 1029,2 hPa 0,0 l/m 0 min 0 min 161 W/m 19,3 km/h (3 Bft) 93,62 %
01.03.2022 10:28 4,6 C 5,0 C 1,1 C 66 % 1029,2 hPa 0,0 l/m 0 min 0 min 202 W/m 19,3 km/h (3 Bft) 91,49 %
01.03.2022 10:30 4,6 C 5,6 C 1,1 C 66 % 1029,2 hPa 0,0 l/m 2 min 0 min 242 W/m 12,9 km/h (3 Bft) 95,65 %
01.03.2022 10:32 4,7 C 5,6 C 1,1 C 67 % 1029,3 hPa 0,0 l/m 2 min 0 min 279 W/m 22,5 km/h (4 Bft) 97,87 %
01.03.2022 10:34 4,8 C 6,1 C 1,7 C 66 % 1029,2 hPa 0,0 l/m 2 min 0 min 301 W/m 22,5 km/h (4 Bft) 95,74 %
01.03.2022 10:36 4,8 C 6,7 C 1,7 C 66 % 1029,3 hPa 0,0 l/m 2 min 0 min 337 W/m 25,7 km/h (4 Bft) 93,62 %
01.03.2022 10:38 4,9 C 7,2 C 2,2 C 66 % 1029,3 hPa 0,0 l/m 2 min 0 min 389 W/m 22,5 km/h (4 Bft) 95,74 %
01.03.2022 10:40 5,1 C 7,2 C 2,2 C 66 % 1029,3 hPa 0,0 l/m 2 min 0 min 355 W/m 25,7 km/h (4 Bft) 93,48 %
01.03.2022 10:42 5,2 C 7,2 C 2,2 C 65 % 1029,3 hPa 0,0 l/m 2 min 0 min 331 W/m 16,1 km/h (3 Bft) 95,74 %
01.03.2022 10:44 5,3 C 7,2 C 2,2 C 65 % 1029,4 hPa 0,0 l/m 2 min 0 min 309 W/m 25,7 km/h (4 Bft) 95,74 %
01.03.2022 10:46 5,4 C 6,7 C 2,2 C 64 % 1029,3 hPa 0,0 l/m 2 min 0 min 291 W/m 22,5 km/h (4 Bft) 97,87 %
01.03.2022 10:48 5,5 C 6,7 C 2,2 C 64 % 1029,3 hPa 0,0 l/m 2 min 0 min 285 W/m 19,3 km/h (3 Bft) 97,87 %
01.03.2022 10:50 5,6 C 6,7 C 2,2 C 64 % 1029,4 hPa 0,0 l/m 2 min 0 min 283 W/m 19,3 km/h (3 Bft) 95,74 %
01.03.2022 10:52 5,6 C 7,2 C 2,2 C 64 % 1029,3 hPa 0,0 l/m 2 min 0 min 253 W/m 12,9 km/h (3 Bft) 95,65 %
01.03.2022 10:54 5,7 C 7,2 C 2,8 C 64 % 1029,3 hPa 0,0 l/m 2 min 0 min 233 W/m 16,1 km/h (3 Bft) 97,87 %
01.03.2022 10:56 5,8 C 6,7 C 2,2 C 63 % 1029,4 hPa 0,0 l/m 2 min 0 min 223 W/m 22,5 km/h (4 Bft) 95,74 %
01.03.2022 10:58 5,8 C 6,7 C 2,2 C 63 % 1029,4 hPa 0,0 l/m 0 min 0 min 213 W/m 19,3 km/h (3 Bft) 97,87 %
01.03.2022 11:00 5,9 C 6,1 C 2,2 C 63 % 1029,4 hPa 0,0 l/m 0 min 0 min 206 W/m 19,3 km/h (3 Bft) 97,87 %
01.03.2022 11:02 5,9 C 6,1 C 2,2 C 63 % 1029,4 hPa 0,0 l/m 0 min 0 min 202 W/m 16,1 km/h (3 Bft) 97,87 %
01.03.2022 11:04 5,9 C 6,1 C 2,2 C 63 % 1029,5 hPa 0,0 l/m 0 min 0 min 202 W/m 12,9 km/h (3 Bft) 97,83 %
01.03.2022 11:06 6,0 C 6,1 C 2,2 C 63 % 1029,5 hPa 0,0 l/m 0 min 0 min 202 W/m 19,3 km/h (3 Bft) 97,87 %
01.03.2022 11:08 6,0 C 6,1 C 2,2 C 63 % 1029,4 hPa 0,0 l/m 0 min 0 min 206 W/m 12,9 km/h (3 Bft) 96,00 %
01.03.2022 11:10 6,1 C 6,1 C 2,2 C 63 % 1029,4 hPa 0,0 l/m 0 min 0 min 213 W/m 16,1 km/h (3 Bft) 97,87 %
01.03.2022 11:12 6,1 C 6,1 C 2,2 C 63 % 1029,4 hPa 0,0 l/m 0 min 0 min 222 W/m 19,3 km/h (3 Bft) 97,87 %
01.03.2022 11:14 6,1 C 6,1 C 2,2 C 62 % 1029,5 hPa 0,0 l/m 0 min 0 min 230 W/m 19,3 km/h (3 Bft) 97,83 %
01.03.2022 11:16 6,1 C 6,7 C 2,2 C 62 % 1029,5 hPa 0,0 l/m 2 min 0 min 237 W/m 12,9 km/h (3 Bft) 97,87 %
01.03.2022 11:18 6,2 C 6,7 C 2,2 C 62 % 1029,4 hPa 0,0 l/m 2 min 0 min 246 W/m 16,1 km/h (3 Bft) 100,00 %
01.03.2022 11:20 6,2 C 6,7 C 2,8 C 62 % 1029,5 hPa 0,0 l/m 2 min 0 min 256 W/m 19,3 km/h (3 Bft) 100,00 %
01.03.2022 11:22 6,2 C 6,7 C 2,8 C 62 % 1029,6 hPa 0,0 l/m 2 min 0 min 266 W/m 16,1 km/h (3 Bft) 100,00 %
01.03.2022 11:24 6,3 C 6,7 C 2,8 C 62 % 1029,6 hPa 0,0 l/m 2 min 0 min 273 W/m 12,9 km/h (3 Bft) 100,00 %
01.03.2022 11:26 6,3 C 7,2 C 2,8 C 62 % 1029,6 hPa 0,0 l/m 2 min 0 min 281 W/m 12,9 km/h (3 Bft) 100,00 %
01.03.2022 11:28 6,3 C 7,2 C 3,3 C 62 % 1029,6 hPa 0,0 l/m 2 min 0 min 293 W/m 19,3 km/h (3 Bft) 100,00 %
01.03.2022 11:30 6,4 C 7,2 C 3,3 C 62 % 1029,6 hPa 0,0 l/m 2 min 0 min 294 W/m 16,1 km/h (3 Bft) 100,00 %
01.03.2022 11:32 6,5 C 7,2 C 3,3 C 62 % 1029,6 hPa 0,0 l/m 2 min 0 min 290 W/m 12,9 km/h (3 Bft) 100,00 %
01.03.2022 11:34 6,5 C 7,2 C 3,3 C 62 % 1029,6 hPa 0,0 l/m 2 min 0 min 283 W/m 19,3 km/h (3 Bft) 100,00 %
01.03.2022 11:36 6,6 C 7,2 C 3,3 C 62 % 1029,6 hPa 0,0 l/m 2 min 0 min 275 W/m 12,9 km/h (3 Bft) 97,87 %
01.03.2022 11:38 6,7 C 7,2 C 3,3 C 62 % 1029,6 hPa 0,0 l/m 2 min 0 min 266 W/m 16,1 km/h (3 Bft) 100,00 %
01.03.2022 11:40 6,7 C 7,8 C 3,3 C 62 % 1029,6 hPa 0,0 l/m 2 min 0 min 262 W/m 16,1 km/h (3 Bft) 100,00 %
01.03.2022 11:42 6,8 C 7,2 C 3,3 C 61 % 1029,6 hPa 0,0 l/m 2 min 0 min 256 W/m 19,3 km/h (3 Bft) 100,00 %
01.03.2022 11:44 6,8 C 7,2 C 3,3 C 61 % 1029,6 hPa 0,0 l/m 2 min 0 min 250 W/m 16,1 km/h (3 Bft) 100,00 %
01.03.2022 11:46 6,8 C 7,2 C 3,3 C 61 % 1029,6 hPa 0,0 l/m 2 min 0 min 249 W/m 19,3 km/h (3 Bft) 100,00 %
01.03.2022 11:48 6,8 C 7,2 C 3,3 C 61 % 1029,6 hPa 0,0 l/m 2 min 0 min 250 W/m 16,1 km/h (3 Bft) 100,00 %
01.03.2022 11:50 6,9 C 7,2 C 3,3 C 61 % 1029,6 hPa 0,0 l/m 2 min 0 min 249 W/m 16,1 km/h (3 Bft) 100,00 %
01.03.2022 11:52 6,9 C 7,2 C 3,3 C 61 % 1029,6 hPa 0,0 l/m 0 min 0 min 248 W/m 16,1 km/h (3 Bft) 100,00 %
01.03.2022 11:54 6,9 C 7,2 C 3,3 C 61 % 1029,6 hPa 0,0 l/m 0 min 0 min 249 W/m 12,9 km/h (3 Bft) 100,00 %
01.03.2022 11:56 7,0 C 7,2 C 3,3 C 61 % 1029,5 hPa 0,0 l/m 2 min 0 min 256 W/m 12,9 km/h (3 Bft) 100,00 %
01.03.2022 11:58 7,1 C 7,8 C 3,3 C 61 % 1029,6 hPa 0,0 l/m 2 min 0 min 268 W/m 12,9 km/h (3 Bft) 100,00 %
01.03.2022 12:00 7,1 C 7,8 C 3,3 C 61 % 1029,6 hPa 0,0 l/m 2 min 0 min 283 W/m 12,9 km/h (3 Bft) 100,00 %
01.03.2022 12:02 7,1 C 8,3 C 3,9 C 61 % 1029,6 hPa 0,0 l/m 2 min 0 min 319 W/m 12,9 km/h (3 Bft) 100,00 %
01.03.2022 12:04 7,2 C 8,9 C 4,4 C 60 % 1029,5 hPa 0,0 l/m 2 min 0 min 376 W/m 19,3 km/h (3 Bft) 97,87 %
01.03.2022 12:08 7,4 C 9,4 C 4,4 C 60 % 1029,5 hPa 0,0 l/m 4 min 0 min 317 W/m 16,1 km/h (3 Bft) 97,87 %
01.03.2022 12:10 7,4 C 8,9 C 4,4 C 60 % 1029,4 hPa 0,0 l/m 2 min 0 min 302 W/m 19,3 km/h (3 Bft) 97,87 %
01.03.2022 12:12 7,5 C 8,9 C 4,4 C 60 % 1029,4 hPa 0,0 l/m 2 min 0 min 305 W/m 19,3 km/h (3 Bft) 97,87 %
01.03.2022 12:14 7,6 C 8,9 C 4,4 C 59 % 1029,4 hPa 0,0 l/m 2 min 0 min 302 W/m 19,3 km/h (3 Bft) 97,83 %
01.03.2022 12:16 7,7 C 9,4 C 4,4 C 59 % 1029,4 hPa 0,0 l/m 2 min 0 min 311 W/m 12,9 km/h (3 Bft) 97,87 %
01.03.2022 12:18 7,8 C 8,9 C 4,4 C 59 % 1029,3 hPa 0,0 l/m 2 min 0 min 291 W/m 16,1 km/h (3 Bft) 97,87 %
01.03.2022 12:20 7,8 C 8,9 C 4,4 C 58 % 1029,3 hPa 0,0 l/m 2 min 0 min 304 W/m 16,1 km/h (3 Bft) 97,87 %
01.03.2022 12:22 7,8 C 8,9 C 4,4 C 58 % 1029,3 hPa 0,0 l/m 2 min 0 min 297 W/m 19,3 km/h (3 Bft) 97,87 %
01.03.2022 12:24 7,9 C 8,9 C 4,4 C 58 % 1029,3 hPa 0,0 l/m 2 min 0 min 283 W/m 19,3 km/h (3 Bft) 97,87 %
01.03.2022 12:26 7,9 C 8,9 C 4,4 C 58 % 1029,3 hPa 0,0 l/m 2 min 0 min 274 W/m 19,3 km/h (3 Bft) 97,83 %
01.03.2022 12:28 7,9 C 8,9 C 4,4 C 58 % 1029,3 hPa 0,0 l/m 2 min 0 min 266 W/m 16,1 km/h (3 Bft) 97,87 %
01.03.2022 12:30 8,0 C 8,3 C 4,4 C 58 % 1029,3 hPa 0,0 l/m 2 min 0 min 261 W/m 19,3 km/h (3 Bft) 93,62 %
01.03.2022 12:32 8,0 C 8,3 C 4,4 C 57 % 1029,3 hPa 0,0 l/m 2 min 0 min 258 W/m 22,5 km/h (4 Bft) 95,74 %
01.03.2022 12:34 8,0 C 8,3 C 4,4 C 58 % 1029,3 hPa 0,0 l/m 0 min 0 min 257 W/m 19,3 km/h (3 Bft) 95,74 %
01.03.2022 12:36 8,0 C 8,3 C 4,4 C 58 % 1029,2 hPa 0,0 l/m 2 min 0 min 258 W/m 16,1 km/h (3 Bft) 95,74 %
01.03.2022 12:38 8,0 C 8,3 C 4,4 C 58 % 1029,2 hPa 0,0 l/m 0 min 0 min 254 W/m 19,3 km/h (3 Bft) 93,48 %
01.03.2022 12:40 8,0 C 8,3 C 4,4 C 58 % 1029,2 hPa 0,0 l/m 0 min 0 min 256 W/m 19,3 km/h (3 Bft) 97,87 %
01.03.2022 12:42 8,0 C 8,3 C 4,4 C 57 % 1029,2 hPa 0,0 l/m 2 min 0 min 262 W/m 16,1 km/h (3 Bft) 97,87 %
01.03.2022 12:44 8,1 C 8,3 C 4,4 C 57 % 1029,2 hPa 0,0 l/m 2 min 0 min 272 W/m 16,1 km/h (3 Bft) 97,87 %
01.03.2022 12:46 8,1 C 8,9 C 4,4 C 57 % 1029,1 hPa 0,0 l/m 2 min 0 min 286 W/m 16,1 km/h (3 Bft) 97,87 %
01.03.2022 12:48 8,1 C 8,9 C 4,4 C 58 % 1029,1 hPa 0,0 l/m 2 min 0 min 298 W/m 12,9 km/h (3 Bft) 95,65 %
01.03.2022 12:50 8,1 C 8,9 C 4,4 C 58 % 1029,1 hPa 0,0 l/m 2 min 0 min 308 W/m 19,3 km/h (3 Bft) 95,74 %
01.03.2022 12:52 8,1 C 8,9 C 4,4 C 57 % 1029,1 hPa 0,0 l/m 2 min 0 min 332 W/m 19,3 km/h (3 Bft) 97,87 %
01.03.2022 12:54 8,2 C 9,4 C 4,4 C 58 % 1029,1 hPa 0,0 l/m 2 min 0 min 340 W/m 16,1 km/h (3 Bft) 97,87 %
01.03.2022 12:56 8,2 C 10,0 C 4,4 C 58 % 1029,0 hPa 0,0 l/m 2 min 0 min 366 W/m 12,9 km/h (3 Bft) 97,87 %
01.03.2022 12:58 8,2 C 10,0 C 4,4 C 57 % 1029,0 hPa 0,0 l/m 2 min 0 min 342 W/m 12,9 km/h (3 Bft) 97,87 %
01.03.2022 13:00 8,3 C 10,0 C 5,0 C 58 % 1029,0 hPa 0,0 l/m 2 min 0 min 358 W/m 19,3 km/h (3 Bft) 97,83 %
01.03.2022 13:02 8,3 C 10,6 C 5,0 C 57 % 1029,0 hPa 0,0 l/m 2 min 0 min 382 W/m 22,5 km/h (4 Bft) 97,87 %
01.03.2022 13:04 8,4 C 12,2 C 5,0 C 56 % 1029,0 hPa 0,0 l/m 2 min 0 min 489 W/m 16,1 km/h (3 Bft) 95,74 %
01.03.2022 13:06 8,5 C 12,8 C 5,0 C 56 % 1029,0 hPa 0,0 l/m 2 min 0 min 645 W/m 9,7 km/h (2 Bft) 95,74 %
01.03.2022 13:08 8,6 C 12,8 C 5,0 C 56 % 1029,0 hPa 0,0 l/m 2 min 0 min 498 W/m 16,1 km/h (3 Bft) 95,74 %
01.03.2022 13:10 8,7 C 12,2 C 5,0 C 56 % 1029,0 hPa 0,0 l/m 2 min 0 min 388 W/m 16,1 km/h (3 Bft) 97,87 %
01.03.2022 13:12 8,8 C 12,2 C 5,0 C 56 % 1029,0 hPa 0,0 l/m 2 min 0 min 378 W/m 19,3 km/h (3 Bft) 97,83 %
01.03.2022 13:14 8,8 C 11,7 C 5,0 C 56 % 1029,0 hPa 0,0 l/m 2 min 0 min 367 W/m 16,1 km/h (3 Bft) 100,00 %
01.03.2022 13:16 8,9 C 11,1 C 5,0 C 55 % 1029,0 hPa 0,0 l/m 2 min 0 min 351 W/m 22,5 km/h (4 Bft) 100,00 %
01.03.2022 13:18 8,9 C 11,1 C 5,0 C 55 % 1029,0 hPa 0,0 l/m 2 min 0 min 338 W/m 19,3 km/h (3 Bft) 100,00 %
01.03.2022 13:20 9,0 C 11,7 C 5,0 C 55 % 1029,0 hPa 0,0 l/m 2 min 0 min 433 W/m 12,9 km/h (3 Bft) 100,00 %
01.03.2022 13:22 9,1 C 11,7 C 5,0 C 55 % 1029,0 hPa 0,0 l/m 2 min 0 min 392 W/m 16,1 km/h (3 Bft) 100,00 %
01.03.2022 13:24 9,1 C 11,1 C 5,0 C 55 % 1029,0 hPa 0,0 l/m 2 min 0 min 294 W/m 12,9 km/h (3 Bft) 100,00 %
01.03.2022 13:26 9,1 C 10,6 C 5,0 C 54 % 1029,0 hPa 0,0 l/m 2 min 0 min 289 W/m 19,3 km/h (3 Bft) 95,74 %
01.03.2022 13:28 9,1 C 10,6 C 5,0 C 54 % 1029,1 hPa 0,0 l/m 2 min 0 min 288 W/m 22,5 km/h (4 Bft) 100,00 %
01.03.2022 13:30 9,1 C 10,0 C 5,0 C 53 % 1029,1 hPa 0,0 l/m 2 min 0 min 282 W/m 16,1 km/h (3 Bft) 100,00 %
01.03.2022 13:32 9,1 C 10,6 C 5,0 C 54 % 1029,1 hPa 0,0 l/m 2 min 0 min 319 W/m 12,9 km/h (3 Bft) 100,00 %
01.03.2022 13:34 9,1 C 11,1 C 5,0 C 54 % 1029,1 hPa 0,0 l/m 2 min 0 min 342 W/m 16,1 km/h (3 Bft) 95,65 %
01.03.2022 13:36 9,1 C 11,1 C 5,0 C 54 % 1029,1 hPa 0,0 l/m 2 min 0 min 352 W/m 16,1 km/h (3 Bft) 97,87 %
01.03.2022 13:38 9,2 C 11,7 C 5,0 C 54 % 1029,0 hPa 0,0 l/m 2 min 0 min 392 W/m 12,9 km/h (3 Bft) 97,87 %
01.03.2022 13:40 9,2 C 13,3 C 5,6 C 54 % 1029,0 hPa 0,0 l/m 2 min 0 min 502 W/m 6,4 km/h (2 Bft) 100,00 %
01.03.2022 13:42 9,3 C 13,3 C 5,6 C 54 % 1029,0 hPa 0,0 l/m 2 min 0 min 491 W/m 19,3 km/h (3 Bft) 100,00 %
01.03.2022 13:44 9,3 C 13,3 C 5,6 C 54 % 1028,9 hPa 0,0 l/m 2 min 0 min 444 W/m 16,1 km/h (3 Bft) 100,00 %
01.03.2022 13:46 9,4 C 13,3 C 5,6 C 54 % 1028,9 hPa 0,0 l/m 2 min 0 min 455 W/m 16,1 km/h (3 Bft) 97,83 %
01.03.2022 13:48 9,6 C 13,9 C 5,6 C 54 % 1028,9 hPa 0,0 l/m 2 min 0 min 512 W/m 12,9 km/h (3 Bft) 97,87 %
01.03.2022 13:50 9,6 C 13,9 C 6,1 C 54 % 1028,9 hPa 0,0 l/m 2 min 0 min 436 W/m 12,9 km/h (3 Bft) 97,87 %
01.03.2022 13:52 9,7 C 13,3 C 5,6 C 53 % 1028,8 hPa 0,0 l/m 2 min 0 min 409 W/m 16,1 km/h (3 Bft) 97,87 %
01.03.2022 13:54 9,8 C 13,3 C 6,1 C 53 % 1028,7 hPa 0,0 l/m 2 min 0 min 444 W/m 12,9 km/h (3 Bft) 95,74 %
01.03.2022 13:56 9,8 C 12,8 C 5,6 C 52 % 1028,7 hPa 0,0 l/m 2 min 0 min 430 W/m 19,3 km/h (3 Bft) 97,87 %
01.03.2022 13:58 9,9 C 12,8 C 5,6 C 52 % 1028,6 hPa 0,0 l/m 2 min 0 min 357 W/m 19,3 km/h (3 Bft) 97,83 %
01.03.2022 14:00 9,9 C 12,2 C 5,6 C 52 % 1028,6 hPa 0,0 l/m 2 min 0 min 353 W/m 12,9 km/h (3 Bft) 97,87 %
01.03.2022 14:02 9,9 C 11,7 C 5,6 C 51 % 1028,6 hPa 0,0 l/m 2 min 0 min 350 W/m 16,1 km/h (3 Bft) 97,87 %
01.03.2022 14:04 9,9 C 11,1 C 5,6 C 51 % 1028,6 hPa 0,0 l/m 2 min 0 min 319 W/m 19,3 km/h (3 Bft) 97,87 %
01.03.2022 14:06 9,9 C 11,1 C 5,6 C 51 % 1028,5 hPa 0,0 l/m 2 min 0 min 303 W/m 12,9 km/h (3 Bft) 97,87 %
01.03.2022 14:08 9,9 C 10,6 C 5,6 C 51 % 1028,5 hPa 0,0 l/m 2 min 0 min 295 W/m 16,1 km/h (3 Bft) 97,83 %
01.03.2022 14:10 9,8 C 10,6 C 5,6 C 50 % 1028,5 hPa 0,0 l/m 2 min 0 min 275 W/m 16,1 km/h (3 Bft) 97,87 %
01.03.2022 14:12 9,8 C 10,0 C 5,6 C 51 % 1028,5 hPa 0,0 l/m 2 min 0 min 263 W/m 16,1 km/h (3 Bft) 97,87 %
01.03.2022 14:14 9,8 C 10,0 C 5,6 C 51 % 1028,5 hPa 0,0 l/m 2 min 0 min 250 W/m 16,1 km/h (3 Bft) 97,14 %
01.03.2022 14:16 9,8 C 10,0 C 5,6 C 51 % 1028,4 hPa 0,0 l/m 2 min 0 min 242 W/m 12,9 km/h (3 Bft) 97,87 %
01.03.2022 14:18 9,7 C 10,0 C 5,6 C 51 % 1028,4 hPa 0,0 l/m 2 min 0 min 234 W/m 12,9 km/h (3 Bft) 98,11 %
01.03.2022 14:20 9,7 C 10,0 C 5,6 C 50 % 1028,4 hPa 0,0 l/m 0 min 0 min 227 W/m 22,5 km/h (4 Bft) 95,74 %
01.03.2022 14:22 9,7 C 9,4 C 5,6 C 50 % 1028,4 hPa 0,0 l/m 0 min 0 min 226 W/m 16,1 km/h (3 Bft) 95,65 %
01.03.2022 14:24 9,7 C 9,4 C 5,6 C 50 % 1028,4 hPa 0,0 l/m 0 min 0 min 225 W/m 16,1 km/h (3 Bft) 95,74 %
01.03.2022 14:26 9,6 C 9,4 C 5,6 C 50 % 1028,4 hPa 0,0 l/m 0 min 0 min 223 W/m 12,9 km/h (3 Bft) 95,74 %
01.03.2022 14:28 9,6 C 9,4 C 5,6 C 50 % 1028,3 hPa 0,0 l/m 0 min 0 min 217 W/m 12,9 km/h (3 Bft) 93,62 %
01.03.2022 14:30 9,6 C 9,4 C 5,6 C 50 % 1028,4 hPa 0,0 l/m 0 min 0 min 209 W/m 22,5 km/h (4 Bft) 95,83 %
01.03.2022 14:32 9,6 C 9,4 C 5,6 C 50 % 1028,3 hPa 0,0 l/m 0 min 0 min 207 W/m 19,3 km/h (3 Bft) 95,74 %
01.03.2022 14:34 9,6 C 9,4 C 5,6 C 51 % 1028,3 hPa 0,0 l/m 0 min 0 min 210 W/m 16,1 km/h (3 Bft) 95,74 %
01.03.2022 14:36 9,6 C 9,4 C 5,6 C 51 % 1028,2 hPa 0,0 l/m 0 min 0 min 213 W/m 16,1 km/h (3 Bft) 95,74 %
01.03.2022 14:38 9,6 C 9,4 C 5,6 C 51 % 1028,2 hPa 0,0 l/m 0 min 0 min 208 W/m 16,1 km/h (3 Bft) 94,12 %
01.03.2022 14:40 9,6 C 9,4 C 5,6 C 50 % 1028,2 hPa 0,0 l/m 0 min 0 min 205 W/m 19,3 km/h (3 Bft) 95,74 %
01.03.2022 14:42 9,6 C 9,4 C 5,6 C 50 % 1028,1 hPa 0,0 l/m 0 min 0 min 197 W/m 16,1 km/h (3 Bft) 95,74 %
01.03.2022 14:44 9,6 C 9,4 C 5,6 C 51 % 1028,1 hPa 0,0 l/m 0 min 0 min 193 W/m 12,9 km/h (3 Bft) 97,87 %
01.03.2022 14:46 9,6 C 9,4 C 5,6 C 51 % 1028,1 hPa 0,0 l/m 0 min 0 min 194 W/m 16,1 km/h (3 Bft) 97,83 %
01.03.2022 14:48 9,6 C 9,4 C 5,6 C 51 % 1028,2 hPa 0,0 l/m 0 min 0 min 202 W/m 12,9 km/h (3 Bft) 95,74 %
01.03.2022 14:50 9,6 C 9,4 C 5,6 C 51 % 1028,1 hPa 0,0 l/m 0 min 0 min 210 W/m 9,7 km/h (2 Bft) 95,74 %
01.03.2022 14:52 9,6 C 10,0 C 5,6 C 51 % 1028,2 hPa 0,0 l/m 2 min 0 min 214 W/m 16,1 km/h (3 Bft) 97,87 %
01.03.2022 14:54 9,6 C 10,0 C 5,6 C 51 % 1028,2 hPa 0,0 l/m 2 min 0 min 222 W/m 12,9 km/h (3 Bft) 97,87 %
01.03.2022 14:56 9,7 C 10,0 C 5,6 C 51 % 1028,2 hPa 0,0 l/m 2 min 0 min 234 W/m 12,9 km/h (3 Bft) 95,65 %
01.03.2022 14:58 9,7 C 10,6 C 5,6 C 51 % 1028,2 hPa 0,0 l/m 2 min 0 min 263 W/m 19,3 km/h (3 Bft) 95,74 %
01.03.2022 15:00 9,7 C 10,6 C 5,6 C 50 % 1028,2 hPa 0,0 l/m 2 min 0 min 277 W/m 12,9 km/h (3 Bft) 97,87 %
01.03.2022 15:02 9,7 C 10,6 C 5,6 C 50 % 1028,2 hPa 0,0 l/m 2 min 0 min 251 W/m 12,9 km/h (3 Bft) 97,87 %
01.03.2022 15:04 9,8 C 11,1 C 5,6 C 50 % 1028,2 hPa 0,0 l/m 2 min 0 min 242 W/m 16,1 km/h (3 Bft) 100,00 %
01.03.2022 15:06 9,8 C 11,1 C 5,6 C 49 % 1028,2 hPa 0,0 l/m 2 min 0 min 237 W/m 12,9 km/h (3 Bft) 97,83 %
01.03.2022 15:08 9,8 C 11,1 C 5,6 C 50 % 1028,2 hPa 0,0 l/m 2 min 0 min 219 W/m 12,9 km/h (3 Bft) 95,74 %
01.03.2022 15:10 9,9 C 10,6 C 5,6 C 50 % 1028,2 hPa 0,0 l/m 2 min 0 min 207 W/m 19,3 km/h (3 Bft) 97,87 %
01.03.2022 15:12 9,9 C 10,6 C 5,6 C 49 % 1028,2 hPa 0,0 l/m 0 min 0 min 196 W/m 12,9 km/h (3 Bft) 95,74 %
01.03.2022 15:14 9,9 C 10,0 C 5,6 C 49 % 1028,1 hPa 0,0 l/m 0 min 0 min 184 W/m 6,4 km/h (2 Bft) 97,87 %
01.03.2022 15:16 9,9 C 10,0 C 5,6 C 49 % 1028,1 hPa 0,0 l/m 0 min 0 min 167 W/m 12,9 km/h (3 Bft) 97,87 %
01.03.2022 15:18 9,9 C 10,0 C 5,6 C 49 % 1028,1 hPa 0,0 l/m 0 min 0 min 148 W/m 12,9 km/h (3 Bft) 97,83 %
01.03.2022 15:20 9,9 C 10,0 C 5,6 C 49 % 1028,1 hPa 0,0 l/m 0 min 0 min 134 W/m 9,7 km/h (2 Bft) 97,87 %
01.03.2022 15:22 9,9 C 9,4 C 5,6 C 49 % 1028,1 hPa 0,0 l/m 0 min 0 min 124 W/m 12,9 km/h (3 Bft) 95,74 %
01.03.2022 15:24 9,9 C 9,4 C 5,0 C 49 % 1028,0 hPa 0,0 l/m 0 min 0 min 116 W/m 12,9 km/h (3 Bft) 97,87 %
01.03.2022 15:26 9,8 C 9,4 C 5,0 C 49 % 1028,0 hPa 0,0 l/m 0 min 0 min 112 W/m 12,9 km/h (3 Bft) 97,87 %
01.03.2022 15:28 9,8 C 9,4 C 5,0 C 49 % 1027,9 hPa 0,0 l/m 0 min 0 min 113 W/m 12,9 km/h (3 Bft) 95,74 %
01.03.2022 15:30 9,8 C 9,4 C 5,0 C 50 % 1027,8 hPa 0,0 l/m 0 min 0 min 117 W/m 12,9 km/h (3 Bft) 97,83 %
01.03.2022 15:32 9,8 C 9,4 C 5,0 C 50 % 1027,8 hPa 0,0 l/m 0 min 0 min 123 W/m 12,9 km/h (3 Bft) 97,87 %
01.03.2022 15:34 9,8 C 8,9 C 5,0 C 50 % 1027,7 hPa 0,0 l/m 0 min 0 min 130 W/m 16,1 km/h (3 Bft) 97,87 %
01.03.2022 15:36 9,7 C 8,9 C 5,0 C 50 % 1027,7 hPa 0,0 l/m 0 min 0 min 133 W/m 16,1 km/h (3 Bft) 97,87 %
01.03.2022 15:38 9,7 C 8,9 C 5,0 C 50 % 1027,7 hPa 0,0 l/m 0 min 0 min 134 W/m 12,9 km/h (3 Bft) 97,87 %
01.03.2022 15:40 9,6 C 8,9 C 5,0 C 51 % 1027,7 hPa 0,0 l/m 0 min 0 min 134 W/m 9,7 km/h (2 Bft) 95,74 %
01.03.2022 15:42 9,6 C 8,9 C 5,0 C 52 % 1027,6 hPa 0,0 l/m 0 min 0 min 133 W/m 6,4 km/h (2 Bft) 97,83 %
01.03.2022 15:44 9,6 C 8,9 C 5,0 C 52 % 1027,6 hPa 0,0 l/m 0 min 0 min 130 W/m 12,9 km/h (3 Bft) 97,87 %
01.03.2022 15:46 9,6 C 9,4 C 5,0 C 53 % 1027,6 hPa 0,0 l/m 0 min 0 min 124 W/m 6,4 km/h (2 Bft) 97,87 %
01.03.2022 15:48 9,6 C 9,4 C 5,0 C 53 % 1027,6 hPa 0,0 l/m 0 min 0 min 117 W/m 12,9 km/h (3 Bft) 100,00 %
01.03.2022 15:50 9,6 C 8,9 C 5,0 C 53 % 1027,5 hPa 0,0 l/m 0 min 0 min 110 W/m 12,9 km/h (3 Bft) 100,00 %
01.03.2022 15:52 9,6 C 8,9 C 5,0 C 53 % 1027,5 hPa 0,0 l/m 0 min 0 min 104 W/m 16,1 km/h (3 Bft) 100,00 %
01.03.2022 15:54 9,6 C 8,9 C 5,0 C 52 % 1027,5 hPa 0,0 l/m 0 min 0 min 99 W/m 12,9 km/h (3 Bft) 100,00 %
01.03.2022 15:56 9,5 C 8,9 C 5,0 C 52 % 1027,5 hPa 0,0 l/m 0 min 0 min 97 W/m 6,4 km/h (2 Bft) 100,00 %
01.03.2022 15:58 9,5 C 8,9 C 5,0 C 52 % 1027,5 hPa 0,0 l/m 0 min 0 min 93 W/m 12,9 km/h (3 Bft) 100,00 %
01.03.2022 16:00 9,5 C 8,9 C 5,0 C 52 % 1027,5 hPa 0,0 l/m 0 min 0 min 90 W/m 6,4 km/h (2 Bft) 100,00 %
01.03.2022 16:02 9,4 C 8,9 C 5,0 C 52 % 1027,5 hPa 0,0 l/m 0 min 0 min 87 W/m 6,4 km/h (2 Bft) 100,00 %
01.03.2022 16:04 9,4 C 8,9 C 5,0 C 52 % 1027,5 hPa 0,0 l/m 0 min 0 min 84 W/m 12,9 km/h (3 Bft) 100,00 %
01.03.2022 16:06 9,4 C 8,9 C 5,0 C 51 % 1027,5 hPa 0,0 l/m 0 min 0 min 82 W/m 12,9 km/h (3 Bft) 100,00 %
01.03.2022 16:08 9,4 C 8,9 C 5,0 C 51 % 1027,5 hPa 0,0 l/m 0 min 0 min 81 W/m 9,7 km/h (2 Bft) 100,00 %
01.03.2022 16:10 9,4 C 8,9 C 5,0 C 51 % 1027,5 hPa 0,0 l/m 0 min 0 min 81 W/m 6,4 km/h (2 Bft) 100,00 %
01.03.2022 16:12 9,4 C 8,9 C 5,0 C 51 % 1027,6 hPa 0,0 l/m 0 min 0 min 80 W/m 6,4 km/h (2 Bft) 97,87 %
01.03.2022 16:14 9,3 C 8,9 C 5,0 C 51 % 1027,5 hPa 0,0 l/m 0 min 0 min 79 W/m 9,7 km/h (2 Bft) 97,87 %
01.03.2022 16:16 9,3 C 8,9 C 5,0 C 51 % 1027,5 hPa 0,0 l/m 0 min 0 min 79 W/m 6,4 km/h (2 Bft) 100,00 %
01.03.2022 16:18 9,3 C 8,9 C 5,0 C 51 % 1027,5 hPa 0,0 l/m 0 min 0 min 79 W/m 12,9 km/h (3 Bft) 100,00 %
01.03.2022 16:20 9,3 C 8,9 C 5,0 C 51 % 1027,5 hPa 0,0 l/m 0 min 0 min 79 W/m 9,7 km/h (2 Bft) 100,00 %
01.03.2022 16:22 9,3 C 8,9 C 5,0 C 51 % 1027,5 hPa 0,0 l/m 0 min 0 min 78 W/m 6,4 km/h (2 Bft) 95,74 %
01.03.2022 16:24 9,3 C 8,9 C 5,0 C 51 % 1027,5 hPa 0,0 l/m 0 min 0 min 76 W/m 6,4 km/h (2 Bft) 100,00 %
01.03.2022 16:26 9,3 C 8,9 C 5,0 C 51 % 1027,5 hPa 0,0 l/m 0 min 0 min 73 W/m 6,4 km/h (2 Bft) 100,00 %
01.03.2022 16:28 9,3 C 8,9 C 5,0 C 51 % 1027,5 hPa 0,0 l/m 0 min 0 min 70 W/m 3,2 km/h (1 Bft) 55,56 %
01.03.2022 16:30 9,3 C 8,9 C 5,0 C 51 % 1027,5 hPa 0,0 l/m 0 min 0 min 66 W/m 6,4 km/h (2 Bft) 100,00 %
01.03.2022 16:32 9,3 C 8,9 C 5,0 C 51 % 1027,5 hPa 0,0 l/m 0 min 0 min 62 W/m 9,7 km/h (2 Bft) 95,74 %
01.03.2022 16:34 9,3 C 8,9 C 5,0 C 52 % 1027,4 hPa 0,0 l/m 0 min 0 min 56 W/m 6,4 km/h (2 Bft) 97,87 %
01.03.2022 16:36 9,3 C 8,3 C 4,4 C 52 % 1027,3 hPa 0,0 l/m 0 min 0 min 53 W/m 3,2 km/h (1 Bft) 95,74 %
01.03.2022 16:38 9,3 C 8,3 C 4,4 C 52 % 1027,3 hPa 0,0 l/m 0 min 0 min 49 W/m 6,4 km/h (2 Bft) 93,62 %
01.03.2022 16:40 9,3 C 8,3 C 4,4 C 52 % 1027,3 hPa 0,0 l/m 0 min 0 min 46 W/m 6,4 km/h (2 Bft) 95,65 %
01.03.2022 16:42 9,3 C 8,3 C 4,4 C 52 % 1027,3 hPa 0,0 l/m 0 min 0 min 43 W/m 3,2 km/h (1 Bft) 97,87 %
01.03.2022 16:44 9,2 C 8,3 C 4,4 C 52 % 1027,3 hPa 0,0 l/m 0 min 0 min 42 W/m 6,4 km/h (2 Bft) 95,74 %
01.03.2022 16:46 9,2 C 8,3 C 4,4 C 52 % 1027,3 hPa 0,0 l/m 0 min 0 min 40 W/m 12,9 km/h (3 Bft) 95,74 %
01.03.2022 16:48 9,2 C 8,3 C 4,4 C 52 % 1027,3 hPa 0,0 l/m 0 min 0 min 39 W/m 6,4 km/h (2 Bft) 95,74 %
01.03.2022 16:50 9,2 C 8,3 C 4,4 C 52 % 1027,4 hPa 0,0 l/m 0 min 0 min 39 W/m 6,4 km/h (2 Bft) 95,74 %
01.03.2022 16:52 9,2 C 8,3 C 4,4 C 52 % 1027,4 hPa 0,0 l/m 0 min 0 min 39 W/m 9,7 km/h (2 Bft) 95,65 %
01.03.2022 16:54 9,2 C 8,3 C 4,4 C 53 % 1027,4 hPa 0,0 l/m 0 min 0 min 39 W/m 3,2 km/h (1 Bft) 95,74 %
01.03.2022 16:56 9,2 C 8,3 C 4,4 C 53 % 1027,4 hPa 0,0 l/m 0 min 0 min 39 W/m 3,2 km/h (1 Bft) 95,74 %
01.03.2022 16:58 9,2 C 8,3 C 4,4 C 52 % 1027,3 hPa 0,0 l/m 0 min 0 min 41 W/m 6,4 km/h (2 Bft) 95,74 %
01.03.2022 17:00 9,2 C 8,3 C 4,4 C 53 % 1027,3 hPa 0,0 l/m 0 min 0 min 43 W/m 3,2 km/h (1 Bft) 95,74 %
01.03.2022 17:02 9,1 C 8,3 C 4,4 C 53 % 1027,3 hPa 0,0 l/m 0 min 0 min 46 W/m 3,2 km/h (1 Bft) 94,29 %
01.03.2022 17:04 9,1 C 8,3 C 4,4 C 53 % 1027,3 hPa 0,0 l/m 0 min 0 min 49 W/m 0,0 km/h (0 Bft) 96,23 %
01.03.2022 17:06 9,1 C 8,3 C 4,4 C 54 % 1027,3 hPa 0,0 l/m 0 min 0 min 54 W/m 3,2 km/h (1 Bft) 95,65 %
01.03.2022 17:08 9,1 C 8,3 C 4,4 C 55 % 1027,3 hPa 0,0 l/m 0 min 0 min 60 W/m 3,2 km/h (1 Bft) 97,87 %
01.03.2022 17:10 9,1 C 8,3 C 4,4 C 55 % 1027,3 hPa 0,0 l/m 0 min 0 min 66 W/m 3,2 km/h (1 Bft) 97,87 %
01.03.2022 17:12 9,1 C 8,3 C 4,4 C 55 % 1027,2 hPa 0,0 l/m 0 min 0 min 72 W/m 3,2 km/h (1 Bft) 97,87 %
01.03.2022 17:14 9,1 C 8,3 C 4,4 C 55 % 1027,2 hPa 0,0 l/m 2 min 0 min 76 W/m 3,2 km/h (1 Bft) 93,62 %
01.03.2022 17:16 9,1 C 8,3 C 4,4 C 55 % 1027,2 hPa 0,0 l/m 2 min 0 min 77 W/m 3,2 km/h (1 Bft) 97,56 %
01.03.2022 17:18 9,1 C 8,3 C 4,4 C 55 % 1027,2 hPa 0,0 l/m 2 min 0 min 76 W/m 3,2 km/h (1 Bft) 96,15 %
01.03.2022 17:20 9,1 C 8,3 C 4,4 C 55 % 1027,2 hPa 0,0 l/m 2 min 0 min 72 W/m 3,2 km/h (1 Bft) 100,00 %
01.03.2022 17:22 9,1 C 8,3 C 4,4 C 55 % 1027,2 hPa 0,0 l/m 2 min 0 min 68 W/m 3,2 km/h (1 Bft) 97,87 %
01.03.2022 17:24 9,0 C 8,3 C 4,4 C 55 % 1027,2 hPa 0,0 l/m 2 min 0 min 65 W/m 3,2 km/h (1 Bft) 97,87 %
01.03.2022 17:26 9,0 C 8,3 C 4,4 C 55 % 1027,2 hPa 0,0 l/m 2 min 0 min 62 W/m 3,2 km/h (1 Bft) 97,87 %
01.03.2022 17:28 9,0 C 8,3 C 4,4 C 55 % 1027,3 hPa 0,0 l/m 2 min 0 min 60 W/m 3,2 km/h (1 Bft) 100,00 %
01.03.2022 17:30 9,0 C 8,3 C 4,4 C 55 % 1027,3 hPa 0,0 l/m 2 min 0 min 58 W/m 3,2 km/h (1 Bft) 97,87 %
01.03.2022 17:32 9,0 C 8,3 C 4,4 C 55 % 1027,2 hPa 0,0 l/m 2 min 0 min 58 W/m 3,2 km/h (1 Bft) 100,00 %
01.03.2022 17:34 9,0 C 8,3 C 4,4 C 55 % 1027,2 hPa 0,0 l/m 2 min 0 min 56 W/m 3,2 km/h (1 Bft) 100,00 %
01.03.2022 17:36 8,9 C 8,3 C 3,9 C 56 % 1027,2 hPa 0,0 l/m 2 min 0 min 53 W/m 3,2 km/h (1 Bft) 100,00 %
01.03.2022 17:38 8,9 C 8,3 C 3,9 C 57 % 1027,2 hPa 0,0 l/m 2 min 0 min 47 W/m 3,2 km/h (1 Bft) 100,00 %
01.03.2022 17:40 8,9 C 8,3 C 3,9 C 57 % 1027,2 hPa 0,0 l/m 2 min 0 min 39 W/m 6,4 km/h (2 Bft) 100,00 %
01.03.2022 17:42 8,9 C 7,8 C 3,9 C 57 % 1027,2 hPa 0,0 l/m 0 min 0 min 32 W/m 6,4 km/h (2 Bft) 97,87 %
01.03.2022 17:44 8,9 C 7,8 C 3,9 C 57 % 1027,3 hPa 0,0 l/m 0 min 0 min 26 W/m 3,2 km/h (1 Bft) 97,87 %
01.03.2022 17:46 8,8 C 7,8 C 3,9 C 58 % 1027,2 hPa 0,0 l/m 0 min 0 min 21 W/m 3,2 km/h (1 Bft) 95,12 %
01.03.2022 17:48 8,8 C 7,8 C 3,9 C 58 % 1027,2 hPa 0,0 l/m 0 min 0 min 16 W/m 12,9 km/h (3 Bft) 98,11 %
01.03.2022 17:50 8,8 C 7,8 C 3,9 C 59 % 1027,2 hPa 0,0 l/m 0 min 0 min 13 W/m 3,2 km/h (1 Bft) 95,74 %
01.03.2022 17:52 8,8 C 7,8 C 3,9 C 59 % 1027,2 hPa 0,0 l/m 0 min 0 min 11 W/m 6,4 km/h (2 Bft) 97,83 %
01.03.2022 17:54 8,8 C 7,2 C 3,9 C 59 % 1027,2 hPa 0,0 l/m 0 min 0 min 9 W/m 3,2 km/h (1 Bft) 97,87 %
01.03.2022 17:56 8,7 C 7,2 C 3,3 C 59 % 1027,2 hPa 0,0 l/m 0 min 0 min 7 W/m 3,2 km/h (1 Bft) 97,56 %
01.03.2022 17:58 8,7 C 7,2 C 3,3 C 59 % 1027,2 hPa 0,0 l/m 0 min 0 min 7 W/m 12,9 km/h (3 Bft) 98,11 %
01.03.2022 18:00 8,6 C 7,2 C 3,3 C 59 % 1027,2 hPa 0,0 l/m 0 min 0 min 7 W/m 6,4 km/h (2 Bft) 95,74 %
01.03.2022 18:02 8,6 C 7,2 C 3,3 C 58 % 1027,2 hPa 0,0 l/m 0 min 0 min 7 W/m 6,4 km/h (2 Bft) 100,00 %
01.03.2022 18:04 8,5 C 7,2 C 3,3 C 59 % 1027,2 hPa 0,0 l/m 0 min 0 min 7 W/m 3,2 km/h (1 Bft) 94,23 %
01.03.2022 18:06 8,5 C 7,2 C 3,3 C 59 % 1027,2 hPa 0,0 l/m 0 min 0 min 5 W/m 0,0 km/h (0 Bft) 97,87 %
01.03.2022 18:08 8,4 C 7,2 C 3,3 C 60 % 1027,2 hPa 0,0 l/m 0 min 0 min 5 W/m 3,2 km/h (1 Bft) 95,74 %
01.03.2022 18:10 8,4 C 7,2 C 3,3 C 59 % 1027,3 hPa 0,0 l/m 0 min 0 min 2 W/m 0,0 km/h (0 Bft) 97,87 %
01.03.2022 18:12 8,3 C 6,7 C 3,3 C 60 % 1027,3 hPa 0,0 l/m 0 min 0 min 0 W/m 3,2 km/h (1 Bft) 97,87 %
01.03.2022 18:14 8,3 C 6,7 C 2,8 C 60 % 1027,4 hPa 0,0 l/m 0 min 0 min 0 W/m 0,0 km/h (0 Bft) 97,83 %
01.03.2022 18:16 8,2 C 6,7 C 2,8 C 61 % 1027,4 hPa 0,0 l/m 0 min 0 min 0 W/m 0,0 km/h (0 Bft) 97,56 %
01.03.2022 18:18 8,2 C 6,7 C 2,8 C 61 % 1027,5 hPa 0,0 l/m 0 min 0 min 0 W/m 0,0 km/h (0 Bft) 96,23 %
01.03.2022 18:20 8,2 C 6,7 C 2,8 C 61 % 1027,5 hPa 0,0 l/m 0 min 0 min 0 W/m 0,0 km/h (0 Bft) 97,87 %
01.03.2022 18:22 8,2 C 6,1 C 2,8 C 61 % 1027,5 hPa 0,0 l/m 0 min 0 min 0 W/m 0,0 km/h (0 Bft) 97,87 %
01.03.2022 18:24 8,1 C 6,1 C 2,2 C 62 % 1027,5 hPa 0,0 l/m 0 min 0 min 0 W/m 0,0 km/h (0 Bft) 98,00 %
01.03.2022 18:26 8,1 C 6,1 C 2,2 C 62 % 1027,5 hPa 0,0 l/m 0 min 0 min 0 W/m 3,2 km/h (1 Bft) 95,65 %
01.03.2022 18:28 8,1 C 6,1 C 2,2 C 62 % 1027,4 hPa 0,0 l/m 0 min 0 min 0 W/m 3,2 km/h (1 Bft) 97,87 %
01.03.2022 18:30 8,1 C 6,1 C 2,2 C 62 % 1027,5 hPa 0,0 l/m 0 min 0 min 0 W/m 3,2 km/h (1 Bft) 97,87 %
01.03.2022 18:32 8,0 C 6,1 C 2,2 C 62 % 1027,5 hPa 0,0 l/m 0 min 0 min 0 W/m 0,0 km/h (0 Bft) 97,87 %
01.03.2022 18:34 8,0 C 6,1 C 2,2 C 62 % 1027,5 hPa 0,0 l/m 0 min 0 min 0 W/m 0,0 km/h (0 Bft) 91,49 %
01.03.2022 18:36 7,9 C 6,1 C 2,2 C 62 % 1027,4 hPa 0,0 l/m 0 min 0 min 0 W/m 0,0 km/h (0 Bft) 95,74 %
01.03.2022 18:38 7,9 C 5,6 C 1,7 C 63 % 1027,4 hPa 0,0 l/m 0 min 0 min 0 W/m 0,0 km/h (0 Bft) 93,48 %
01.03.2022 18:40 7,8 C 5,6 C 1,7 C 63 % 1027,4 hPa 0,0 l/m 0 min 0 min 0 W/m 0,0 km/h (0 Bft) 97,87 %
01.03.2022 18:42 7,8 C 5,6 C 1,7 C 64 % 1027,4 hPa 0,0 l/m 0 min 0 min 0 W/m 0,0 km/h (0 Bft) 97,87 %
01.03.2022 18:44 7,7 C 5,6 C 1,7 C 64 % 1027,4 hPa 0,0 l/m 0 min 0 min 0 W/m 0,0 km/h (0 Bft) 95,74 %
01.03.2022 18:46 7,7 C 5,6 C 1,7 C 64 % 1027,5 hPa 0,0 l/m 0 min 0 min 0 W/m 3,2 km/h (1 Bft) 97,87 %
01.03.2022 18:48 7,6 C 5,0 C 1,1 C 64 % 1027,5 hPa 0,0 l/m 0 min 0 min 0 W/m 3,2 km/h (1 Bft) 95,92 %
01.03.2022 18:50 7,6 C 5,0 C 1,1 C 65 % 1027,5 hPa 0,0 l/m 0 min 0 min 0 W/m 0,0 km/h (0 Bft) 95,74 %
01.03.2022 18:52 7,4 C 5,6 C 1,1 C 65 % 1027,4 hPa 0,0 l/m 0 min 0 min 0 W/m 3,2 km/h (1 Bft) 97,87 %
01.03.2022 18:54 7,3 C 5,6 C 1,7 C 64 % 1027,4 hPa 0,0 l/m 0 min 0 min 0 W/m 3,2 km/h (1 Bft) 97,87 %
01.03.2022 18:56 7,2 C 5,6 C 1,7 C 64 % 1027,4 hPa 0,0 l/m 0 min 0 min 0 W/m 3,2 km/h (1 Bft) 97,87 %
01.03.2022 18:58 7,2 C 5,6 C 1,7 C 63 % 1027,5 hPa 0,0 l/m 0 min 0 min 0 W/m 3,2 km/h (1 Bft) 97,14 %
01.03.2022 19:00 7,1 C 5,6 C 1,7 C 62 % 1027,5 hPa 0,0 l/m 0 min 0 min 0 W/m 6,4 km/h (2 Bft) 96,23 %
01.03.2022 19:02 7,1 C 6,1 C 2,2 C 61 % 1027,5 hPa 0,0 l/m 0 min 0 min 0 W/m 6,4 km/h (2 Bft) 97,50 %
01.03.2022 19:04 7,0 C 6,1 C 2,2 C 61 % 1027,5 hPa 0,0 l/m 0 min 0 min 0 W/m 6,4 km/h (2 Bft) 100,00 %
01.03.2022 19:06 7,0 C 6,1 C 2,2 C 60 % 1027,5 hPa 0,0 l/m 0 min 0 min 0 W/m 3,2 km/h (1 Bft) 100,00 %
01.03.2022 19:08 6,9 C 6,1 C 2,2 C 60 % 1027,5 hPa 0,0 l/m 0 min 0 min 0 W/m 3,2 km/h (1 Bft) 97,87 %
01.03.2022 19:10 6,9 C 6,1 C 2,2 C 60 % 1027,6 hPa 0,0 l/m 0 min 0 min 0 W/m 3,2 km/h (1 Bft) 97,92 %
01.03.2022 19:12 6,9 C 6,1 C 2,2 C 60 % 1027,6 hPa 0,0 l/m 0 min 0 min 0 W/m 3,2 km/h (1 Bft) 97,87 %
01.03.2022 19:14 6,9 C 6,1 C 2,2 C 59 % 1027,6 hPa 0,0 l/m 0 min 0 min 0 W/m 6,4 km/h (2 Bft) 95,74 %
01.03.2022 19:16 6,9 C 6,1 C 2,2 C 59 % 1027,6 hPa 0,0 l/m 0 min 0 min 0 W/m 3,2 km/h (1 Bft) 97,87 %
01.03.2022 19:18 6,9 C 6,1 C 2,2 C 59 % 1027,6 hPa 0,0 l/m 0 min 0 min 0 W/m 3,2 km/h (1 Bft) 97,87 %
01.03.2022 19:20 6,9 C 6,1 C 2,2 C 60 % 1027,6 hPa 0,0 l/m 0 min 0 min 0 W/m 3,2 km/h (1 Bft) 97,14 %
01.03.2022 19:22 6,9 C 6,1 C 1,7 C 60 % 1027,6 hPa 0,0 l/m 0 min 0 min 0 W/m 3,2 km/h (1 Bft) 98,21 %
01.03.2022 19:24 6,9 C 6,1 C 1,7 C 60 % 1027,6 hPa 0,0 l/m 0 min 0 min 0 W/m 3,2 km/h (1 Bft) 97,96 %
01.03.2022 19:26 6,9 C 6,1 C 1,7 C 59 % 1027,6 hPa 0,0 l/m 0 min 0 min 0 W/m 3,2 km/h (1 Bft) 95,74 %
01.03.2022 19:28 6,9 C 6,1 C 1,7 C 59 % 1027,6 hPa 0,0 l/m 0 min 0 min 0 W/m 6,4 km/h (2 Bft) 97,87 %
01.03.2022 19:30 6,8 C 6,1 C 1,7 C 59 % 1027,7 hPa 0,0 l/m 0 min 0 min 0 W/m 6,4 km/h (2 Bft) 100,00 %
01.03.2022 19:32 6,8 C 6,1 C 1,7 C 58 % 1027,6 hPa 0,0 l/m 0 min 0 min 0 W/m 3,2 km/h (1 Bft) 96,43 %
01.03.2022 19:34 6,8 C 6,1 C 2,2 C 58 % 1027,7 hPa 0,0 l/m 0 min 0 min 0 W/m 6,4 km/h (2 Bft) 95,74 %
01.03.2022 19:36 6,8 C 6,1 C 2,2 C 58 % 1027,7 hPa 0,0 l/m 0 min 0 min 0 W/m 6,4 km/h (2 Bft) 97,96 %
01.03.2022 19:38 6,8 C 5,6 C 1,7 C 58 % 1027,7 hPa 0,0 l/m 0 min 0 min 0 W/m 6,4 km/h (2 Bft) 95,74 %
01.03.2022 19:40 6,8 C 5,6 C 1,7 C 58 % 1027,7 hPa 0,0 l/m 0 min 0 min 0 W/m 3,2 km/h (1 Bft) 97,14 %
01.03.2022 19:42 6,7 C 5,6 C 1,7 C 58 % 1027,6 hPa 0,0 l/m 0 min 0 min 0 W/m 12,9 km/h (3 Bft) 96,23 %
01.03.2022 19:44 6,7 C 5,6 C 1,7 C 58 % 1027,6 hPa 0,0 l/m 0 min 0 min 0 W/m 6,4 km/h (2 Bft) 97,87 %
01.03.2022 19:46 6,7 C 5,6 C 1,7 C 58 % 1027,6 hPa 0,0 l/m 0 min 0 min 0 W/m 12,9 km/h (3 Bft) 97,96 %
01.03.2022 19:48 6,7 C 5,6 C 1,7 C 58 % 1027,6 hPa 0,0 l/m 0 min 0 min 0 W/m 6,4 km/h (2 Bft) 98,00 %
01.03.2022 19:50 6,7 C 5,6 C 1,7 C 58 % 1027,6 hPa 0,0 l/m 0 min 0 min 0 W/m 3,2 km/h (1 Bft) 100,00 %
01.03.2022 19:52 6,6 C 5,6 C 1,7 C 58 % 1027,6 hPa 0,0 l/m 0 min 0 min 0 W/m 6,4 km/h (2 Bft) 100,00 %
01.03.2022 19:54 6,6 C 5,6 C 1,7 C 58 % 1027,5 hPa 0,0 l/m 0 min 0 min 0 W/m 6,4 km/h (2 Bft) 100,00 %
01.03.2022 19:56 6,6 C 5,6 C 1,7 C 58 % 1027,5 hPa 0,0 l/m 0 min 0 min 0 W/m 6,4 km/h (2 Bft) 97,87 %
01.03.2022 19:58 6,6 C 5,6 C 1,7 C 58 % 1027,5 hPa 0,0 l/m 0 min 0 min 0 W/m 6,4 km/h (2 Bft) 100,00 %
01.03.2022 20:00 6,6 C 5,6 C 1,7 C 58 % 1027,5 hPa 0,0 l/m 0 min 0 min 0 W/m 3,2 km/h (1 Bft) 100,00 %
01.03.2022 20:02 6,6 C 5,6 C 1,7 C 59 % 1027,5 hPa 0,0 l/m 0 min 0 min 0 W/m 3,2 km/h (1 Bft) 97,56 %
01.03.2022 20:04 6,6 C 5,6 C 1,7 C 59 % 1027,5 hPa 0,0 l/m 0 min 0 min 0 W/m 3,2 km/h (1 Bft) 100,00 %
01.03.2022 20:06 6,5 C 5,6 C 1,7 C 59 % 1027,6 hPa 0,0 l/m 0 min 0 min 0 W/m 3,2 km/h (1 Bft) 100,00 %
01.03.2022 20:08 6,5 C 5,6 C 1,1 C 60 % 1027,6 hPa 0,0 l/m 0 min 0 min 0 W/m 3,2 km/h (1 Bft) 100,00 %
01.03.2022 20:10 6,5 C 5,6 C 1,1 C 59 % 1027,6 hPa 0,0 l/m 0 min 0 min 0 W/m 3,2 km/h (1 Bft) 100,00 %
01.03.2022 20:12 6,5 C 5,0 C 1,1 C 60 % 1027,6 hPa 0,0 l/m 0 min 0 min 0 W/m 0,0 km/h (0 Bft) 100,00 %
01.03.2022 20:14 6,4 C 5,0 C 1,1 C 60 % 1027,7 hPa 0,0 l/m 0 min 0 min 0 W/m 0,0 km/h (0 Bft) 100,00 %
01.03.2022 20:16 6,4 C 5,0 C 1,1 C 60 % 1027,6 hPa 0,0 l/m 0 min 0 min 0 W/m 3,2 km/h (1 Bft) 100,00 %
01.03.2022 20:18 6,4 C 5,0 C 1,1 C 61 % 1027,6 hPa 0,0 l/m 0 min 0 min 0 W/m 0,0 km/h (0 Bft) 97,87 %
01.03.2022 20:20 6,3 C 5,0 C 1,1 C 61 % 1027,6 hPa 0,0 l/m 0 min 0 min 0 W/m 3,2 km/h (1 Bft) 97,83 %
01.03.2022 20:22 6,3 C 5,0 C 0,6 C 61 % 1027,6 hPa 0,0 l/m 0 min 0 min 0 W/m 3,2 km/h (1 Bft) 97,87 %
01.03.2022 20:24 6,2 C 5,0 C 0,6 C 61 % 1027,6 hPa 0,0 l/m 0 min 0 min 0 W/m 3,2 km/h (1 Bft) 97,87 %
01.03.2022 20:26 6,2 C 5,0 C 0,6 C 60 % 1027,6 hPa 0,0 l/m 0 min 0 min 0 W/m 3,2 km/h (1 Bft) 97,14 %
01.03.2022 20:28 6,2 C 5,0 C 1,1 C 60 % 1027,6 hPa 0,0 l/m 0 min 0 min 0 W/m 3,2 km/h (1 Bft) 98,21 %
01.03.2022 20:30 6,2 C 5,0 C 1,1 C 60 % 1027,6 hPa 0,0 l/m 0 min 0 min 0 W/m 3,2 km/h (1 Bft) 97,87 %
01.03.2022 20:32 6,1 C 5,0 C 1,1 C 60 % 1027,6 hPa 0,0 l/m 0 min 0 min 0 W/m 3,2 km/h (1 Bft) 65,96 %
01.03.2022 20:34 6,1 C 5,0 C 1,1 C 60 % 1027,6 hPa 0,0 l/m 0 min 0 min 0 W/m 6,4 km/h (2 Bft) 86,11 %
01.03.2022 20:36 6,1 C 5,0 C 1,1 C 60 % 1027,6 hPa 0,0 l/m 0 min 0 min 0 W/m 3,2 km/h (1 Bft) 97,87 %
01.03.2022 20:38 6,0 C 5,0 C 1,1 C 60 % 1027,6 hPa 0,0 l/m 0 min 0 min 0 W/m 3,2 km/h (1 Bft) 97,37 %
01.03.2022 20:40 6,0 C 5,0 C 1,1 C 60 % 1027,6 hPa 0,0 l/m 0 min 0 min 0 W/m 3,2 km/h (1 Bft) 97,87 %
01.03.2022 20:42 5,9 C 5,0 C 1,1 C 60 % 1027,6 hPa 0,0 l/m 0 min 0 min 0 W/m 6,4 km/h (2 Bft) 95,74 %
01.03.2022 20:44 5,9 C 5,0 C 1,1 C 60 % 1027,6 hPa 0,0 l/m 0 min 0 min 0 W/m 3,2 km/h (1 Bft) 95,74 %
01.03.2022 20:46 5,9 C 5,0 C 1,1 C 60 % 1027,6 hPa 0,0 l/m 0 min 0 min 0 W/m 6,4 km/h (2 Bft) 97,83 %
01.03.2022 20:48 5,9 C 5,0 C 1,1 C 60 % 1027,5 hPa 0,0 l/m 0 min 0 min 0 W/m 6,4 km/h (2 Bft) 100,00 %
01.03.2022 20:50 5,9 C 5,0 C 1,1 C 60 % 1027,6 hPa 0,0 l/m 0 min 0 min 0 W/m 3,2 km/h (1 Bft) 100,00 %
01.03.2022 20:52 5,8 C 5,0 C 1,1 C 61 % 1027,6 hPa 0,0 l/m 0 min 0 min 0 W/m 3,2 km/h (1 Bft) 100,00 %
01.03.2022 20:54 5,8 C 5,0 C 1,1 C 60 % 1027,7 hPa 0,0 l/m 0 min 0 min 0 W/m 6,4 km/h (2 Bft) 100,00 %
01.03.2022 20:56 5,8 C 5,0 C 1,1 C 61 % 1027,6 hPa 0,0 l/m 0 min 0 min 0 W/m 3,2 km/h (1 Bft) 100,00 %
01.03.2022 20:58 5,8 C 5,0 C 1,1 C 61 % 1027,7 hPa 0,0 l/m 0 min 0 min 0 W/m 3,2 km/h (1 Bft) 100,00 %
01.03.2022 21:00 5,8 C 5,0 C 1,1 C 61 % 1027,7 hPa 0,0 l/m 0 min 0 min 0 W/m 3,2 km/h (1 Bft) 100,00 %
01.03.2022 21:02 5,8 C 5,0 C 1,1 C 61 % 1027,6 hPa 0,0 l/m 0 min 0 min 0 W/m 3,2 km/h (1 Bft) 97,87 %
01.03.2022 21:04 5,8 C 5,0 C 1,1 C 61 % 1027,6 hPa 0,0 l/m 0 min 0 min 0 W/m 3,2 km/h (1 Bft) 98,00 %
01.03.2022 21:06 5,8 C 5,0 C 1,1 C 61 % 1027,7 hPa 0,0 l/m 0 min 0 min 0 W/m 6,4 km/h (2 Bft) 97,83 %
01.03.2022 21:08 5,8 C 5,0 C 1,1 C 61 % 1027,7 hPa 0,0 l/m 0 min 0 min 0 W/m 3,2 km/h (1 Bft) 95,74 %
01.03.2022 21:10 5,8 C 5,0 C 1,1 C 61 % 1027,7 hPa 0,0 l/m 0 min 0 min 0 W/m 3,2 km/h (1 Bft) 97,87 %
01.03.2022 21:12 5,8 C 5,0 C 1,1 C 61 % 1027,7 hPa 0,0 l/m 0 min 0 min 0 W/m 6,4 km/h (2 Bft) 97,87 %
01.03.2022 21:14 5,8 C 5,0 C 1,1 C 61 % 1027,6 hPa 0,0 l/m 0 min 0 min 0 W/m 3,2 km/h (1 Bft) 92,11 %
01.03.2022 21:16 5,8 C 5,0 C 1,1 C 61 % 1027,6 hPa 0,0 l/m 0 min 0 min 0 W/m 6,4 km/h (2 Bft) 95,74 %
01.03.2022 21:18 5,8 C 5,0 C 1,1 C 61 % 1027,5 hPa 0,0 l/m 0 min 0 min 0 W/m 6,4 km/h (2 Bft) 97,87 %
01.03.2022 21:20 5,7 C 5,0 C 1,1 C 61 % 1027,6 hPa 0,0 l/m 0 min 0 min 0 W/m 3,2 km/h (1 Bft) 97,83 %
01.03.2022 21:22 5,7 C 5,0 C 1,1 C 61 % 1027,5 hPa 0,0 l/m 0 min 0 min 0 W/m 6,4 km/h (2 Bft) 98,21 %
01.03.2022 21:24 5,7 C 5,0 C 1,1 C 61 % 1027,6 hPa 0,0 l/m 0 min 0 min 0 W/m 6,4 km/h (2 Bft) 97,87 %
01.03.2022 21:26 5,7 C 5,0 C 1,1 C 61 % 1027,5 hPa 0,0 l/m 0 min 0 min 0 W/m 12,9 km/h (3 Bft) 93,62 %
01.03.2022 21:28 5,7 C 5,0 C 1,1 C 61 % 1027,5 hPa 0,0 l/m 0 min 0 min 0 W/m 6,4 km/h (2 Bft) 97,37 %
01.03.2022 21:30 5,7 C 5,0 C 1,1 C 61 % 1027,5 hPa 0,0 l/m 0 min 0 min 0 W/m 6,4 km/h (2 Bft) 95,65 %
01.03.2022 21:32 5,7 C 5,0 C 1,1 C 62 % 1027,4 hPa 0,0 l/m 0 min 0 min 0 W/m 6,4 km/h (2 Bft) 95,65 %
01.03.2022 21:34 5,7 C 5,0 C 1,1 C 61 % 1027,5 hPa 0,0 l/m 0 min 0 min 0 W/m 12,9 km/h (3 Bft) 93,62 %
01.03.2022 21:36 5,7 C 5,0 C 1,7 C 61 % 1027,5 hPa 0,0 l/m 0 min 0 min 0 W/m 6,4 km/h (2 Bft) 96,00 %
01.03.2022 21:38 5,8 C 5,0 C 1,1 C 62 % 1027,5 hPa 0,0 l/m 0 min 0 min 0 W/m 6,4 km/h (2 Bft) 95,74 %
01.03.2022 21:40 5,8 C 5,0 C 1,7 C 62 % 1027,5 hPa 0,0 l/m 0 min 0 min 0 W/m 6,4 km/h (2 Bft) 95,45 %
01.03.2022 21:42 5,8 C 5,0 C 1,1 C 62 % 1027,5 hPa 0,0 l/m 0 min 0 min 0 W/m 3,2 km/h (1 Bft) 93,88 %
01.03.2022 21:44 5,8 C 5,0 C 1,1 C 62 % 1027,5 hPa 0,0 l/m 0 min 0 min 0 W/m 3,2 km/h (1 Bft) 93,62 %
01.03.2022 21:46 5,8 C 5,0 C 1,1 C 62 % 1027,6 hPa 0,0 l/m 0 min 0 min 0 W/m 3,2 km/h (1 Bft) 91,49 %
01.03.2022 21:48 5,8 C 5,0 C 1,1 C 62 % 1027,6 hPa 0,0 l/m 0 min 0 min 0 W/m 3,2 km/h (1 Bft) 97,87 %
01.03.2022 21:50 5,8 C 5,0 C 1,1 C 62 % 1027,6 hPa 0,0 l/m 0 min 0 min 0 W/m 6,4 km/h (2 Bft) 95,74 %
01.03.2022 21:52 5,8 C 5,0 C 1,1 C 62 % 1027,5 hPa 0,0 l/m 0 min 0 min 0 W/m 6,4 km/h (2 Bft) 95,45 %
01.03.2022 21:54 5,7 C 5,0 C 1,1 C 62 % 1027,5 hPa 0,0 l/m 0 min 0 min 0 W/m 6,4 km/h (2 Bft) 95,74 %
01.03.2022 21:56 5,7 C 5,0 C 1,1 C 62 % 1027,5 hPa 0,0 l/m 0 min 0 min 0 W/m 6,4 km/h (2 Bft) 95,65 %
01.03.2022 21:58 5,7 C 5,0 C 1,1 C 62 % 1027,5 hPa 0,0 l/m 0 min 0 min 0 W/m 12,9 km/h (3 Bft) 98,00 %
01.03.2022 22:00 5,7 C 5,0 C 1,1 C 62 % 1027,4 hPa 0,0 l/m 0 min 0 min 0 W/m 12,9 km/h (3 Bft) 97,87 %
01.03.2022 22:02 5,7 C 5,0 C 1,1 C 62 % 1027,4 hPa 0,0 l/m 0 min 0 min 0 W/m 6,4 km/h (2 Bft) 95,74 %
01.03.2022 22:04 5,7 C 5,0 C 1,1 C 62 % 1027,5 hPa 0,0 l/m 0 min 0 min 0 W/m 6,4 km/h (2 Bft) 95,74 %
01.03.2022 22:06 5,7 C 5,0 C 1,1 C 62 % 1027,5 hPa 0,0 l/m 0 min 0 min 0 W/m 3,2 km/h (1 Bft) 93,48 %
01.03.2022 22:08 5,7 C 5,0 C 1,1 C 63 % 1027,5 hPa 0,0 l/m 0 min 0 min 0 W/m 6,4 km/h (2 Bft) 97,87 %
01.03.2022 22:10 5,7 C 5,0 C 1,1 C 63 % 1027,5 hPa 0,0 l/m 0 min 0 min 0 W/m 6,4 km/h (2 Bft) 100,00 %
01.03.2022 22:12 5,7 C 5,0 C 1,1 C 63 % 1027,5 hPa 0,0 l/m 0 min 0 min 0 W/m 12,9 km/h (3 Bft) 97,87 %
01.03.2022 22:14 5,7 C 5,0 C 1,1 C 63 % 1027,4 hPa 0,0 l/m 0 min 0 min 0 W/m 6,4 km/h (2 Bft) 97,73 %
01.03.2022 22:16 5,6 C 5,0 C 1,1 C 63 % 1027,5 hPa 0,0 l/m 0 min 0 min 0 W/m 6,4 km/h (2 Bft) 95,74 %
01.03.2022 22:18 5,6 C 5,0 C 1,1 C 63 % 1027,5 hPa 0,0 l/m 0 min 0 min 0 W/m 6,4 km/h (2 Bft) 95,74 %
01.03.2022 22:20 5,6 C 5,0 C 1,1 C 63 % 1027,4 hPa 0,0 l/m 0 min 0 min 0 W/m 12,9 km/h (3 Bft) 95,65 %
01.03.2022 22:22 5,6 C 5,0 C 1,1 C 63 % 1027,4 hPa 0,0 l/m 0 min 0 min 0 W/m 6,4 km/h (2 Bft) 98,00 %
01.03.2022 22:24 5,6 C 5,0 C 1,1 C 63 % 1027,3 hPa 0,0 l/m 0 min 0 min 0 W/m 6,4 km/h (2 Bft) 97,87 %
01.03.2022 22:26 5,6 C 5,0 C 1,1 C 63 % 1027,4 hPa 0,0 l/m 0 min 0 min 0 W/m 6,4 km/h (2 Bft) 95,74 %
01.03.2022 22:28 5,6 C 5,0 C 1,1 C 63 % 1027,4 hPa 0,0 l/m 0 min 0 min 0 W/m 6,4 km/h (2 Bft) 97,87 %
01.03.2022 22:30 5,6 C 5,0 C 1,1 C 63 % 1027,4 hPa 0,0 l/m 0 min 0 min 0 W/m 6,4 km/h (2 Bft) 97,83 %
01.03.2022 22:32 5,6 C 5,0 C 1,1 C 63 % 1027,3 hPa 0,0 l/m 0 min 0 min 0 W/m 6,4 km/h (2 Bft) 100,00 %
01.03.2022 22:34 5,6 C 5,0 C 1,1 C 63 % 1027,4 hPa 0,0 l/m 0 min 0 min 0 W/m 12,9 km/h (3 Bft) 100,00 %
01.03.2022 22:36 5,6 C 5,0 C 1,1 C 62 % 1027,4 hPa 0,0 l/m 0 min 0 min 0 W/m 6,4 km/h (2 Bft) 100,00 %
01.03.2022 22:38 5,7 C 5,0 C 1,1 C 62 % 1027,4 hPa 0,0 l/m 0 min 0 min 0 W/m 6,4 km/h (2 Bft) 100,00 %
01.03.2022 22:40 5,7 C 5,0 C 1,1 C 62 % 1027,4 hPa 0,0 l/m 0 min 0 min 0 W/m 6,4 km/h (2 Bft) 97,87 %
01.03.2022 22:42 5,6 C 5,0 C 1,1 C 62 % 1027,4 hPa 0,0 l/m 0 min 0 min 0 W/m 6,4 km/h (2 Bft) 100,00 %
01.03.2022 22:44 5,7 C 5,0 C 1,1 C 62 % 1027,5 hPa 0,0 l/m 0 min 0 min 0 W/m 6,4 km/h (2 Bft) 100,00 %
01.03.2022 22:46 5,7 C 5,0 C 1,1 C 62 % 1027,5 hPa 0,0 l/m 0 min 0 min 0 W/m 6,4 km/h (2 Bft) 100,00 %
01.03.2022 22:48 5,7 C 5,0 C 1,1 C 62 % 1027,5 hPa 0,0 l/m 0 min 0 min 0 W/m 3,2 km/h (1 Bft) 100,00 %
01.03.2022 22:50 5,7 C 5,0 C 1,1 C 62 % 1027,5 hPa 0,0 l/m 0 min 0 min 0 W/m 3,2 km/h (1 Bft) 97,87 %
01.03.2022 22:52 5,7 C 5,0 C 1,1 C 62 % 1027,6 hPa 0,0 l/m 0 min 0 min 0 W/m 6,4 km/h (2 Bft) 100,00 %
01.03.2022 22:54 5,7 C 5,0 C 1,1 C 62 % 1027,6 hPa 0,0 l/m 0 min 0 min 0 W/m 6,4 km/h (2 Bft) 100,00 %
01.03.2022 22:56 5,7 C 5,0 C 1,7 C 62 % 1027,6 hPa 0,0 l/m 0 min 0 min 0 W/m 6,4 km/h (2 Bft) 100,00 %
01.03.2022 22:58 5,7 C 5,0 C 1,7 C 62 % 1027,6 hPa 0,0 l/m 0 min 0 min 0 W/m 6,4 km/h (2 Bft) 100,00 %
01.03.2022 23:00 5,7 C 5,0 C 1,7 C 63 % 1027,6 hPa 0,0 l/m 0 min 0 min 0 W/m 6,4 km/h (2 Bft) 100,00 %
01.03.2022 23:02 5,7 C 5,0 C 1,7 C 63 % 1027,7 hPa 0,0 l/m 0 min 0 min 0 W/m 3,2 km/h (1 Bft) 100,00 %
01.03.2022 23:04 5,7 C 5,0 C 1,1 C 63 % 1027,6 hPa 0,0 l/m 0 min 0 min 0 W/m 6,4 km/h (2 Bft) 100,00 %
01.03.2022 23:06 5,7 C 5,0 C 1,7 C 63 % 1027,6 hPa 0,0 l/m 0 min 0 min 0 W/m 3,2 km/h (1 Bft) 100,00 %
01.03.2022 23:08 5,8 C 5,0 C 1,1 C 63 % 1027,6 hPa 0,0 l/m 0 min 0 min 0 W/m 3,2 km/h (1 Bft) 100,00 %
01.03.2022 23:10 5,8 C 5,0 C 1,1 C 63 % 1027,6 hPa 0,0 l/m 0 min 0 min 0 W/m 3,2 km/h (1 Bft) 100,00 %
01.03.2022 23:12 5,8 C 5,0 C 1,1 C 64 % 1027,6 hPa 0,0 l/m 0 min 0 min 0 W/m 3,2 km/h (1 Bft) 100,00 %
01.03.2022 23:14 5,8 C 5,0 C 1,1 C 64 % 1027,6 hPa 0,0 l/m 0 min 0 min 0 W/m 6,4 km/h (2 Bft) 100,00 %
01.03.2022 23:16 5,7 C 5,0 C 1,1 C 64 % 1027,6 hPa 0,0 l/m 0 min 0 min 0 W/m 12,9 km/h (3 Bft) 97,96 %
01.03.2022 23:18 5,7 C 5,0 C 1,1 C 64 % 1027,6 hPa 0,0 l/m 0 min 0 min 0 W/m 6,4 km/h (2 Bft) 100,00 %
01.03.2022 23:20 5,7 C 5,0 C 1,1 C 64 % 1027,6 hPa 0,0 l/m 0 min 0 min 0 W/m 3,2 km/h (1 Bft) 100,00 %
01.03.2022 23:22 5,7 C 5,0 C 1,1 C 64 % 1027,5 hPa 0,0 l/m 0 min 0 min 0 W/m 6,4 km/h (2 Bft) 100,00 %
01.03.2022 23:24 5,7 C 5,0 C 1,1 C 64 % 1027,4 hPa 0,0 l/m 0 min 0 min 0 W/m 6,4 km/h (2 Bft) 100,00 %
01.03.2022 23:26 5,7 C 5,0 C 1,1 C 65 % 1027,4 hPa 0,0 l/m 0 min 0 min 0 W/m 6,4 km/h (2 Bft) 97,87 %
01.03.2022 23:28 5,7 C 5,0 C 1,1 C 65 % 1027,4 hPa 0,0 l/m 0 min 0 min 0 W/m 12,9 km/h (3 Bft) 100,00 %
01.03.2022 23:30 5,7 C 5,0 C 1,1 C 65 % 1027,4 hPa 0,0 l/m 0 min 0 min 0 W/m 6,4 km/h (2 Bft) 100,00 %
01.03.2022 23:32 5,7 C 5,0 C 1,1 C 65 % 1027,4 hPa 0,0 l/m 0 min 0 min 0 W/m 6,4 km/h (2 Bft) 100,00 %
01.03.2022 23:34 5,6 C 5,0 C 1,1 C 65 % 1027,3 hPa 0,0 l/m 0 min 0 min 0 W/m 6,4 km/h (2 Bft) 100,00 %
01.03.2022 23:36 5,6 C 5,0 C 1,1 C 65 % 1027,3 hPa 0,0 l/m 0 min 0 min 0 W/m 6,4 km/h (2 Bft) 100,00 %
01.03.2022 23:38 5,6 C 5,0 C 1,1 C 65 % 1027,2 hPa 0,0 l/m 0 min 0 min 0 W/m 6,4 km/h (2 Bft) 100,00 %
01.03.2022 23:40 5,6 C 5,0 C 1,1 C 65 % 1027,3 hPa 0,0 l/m 0 min 0 min 0 W/m 6,4 km/h (2 Bft) 100,00 %
01.03.2022 23:42 5,6 C 5,0 C 1,1 C 65 % 1027,3 hPa 0,0 l/m 0 min 0 min 0 W/m 6,4 km/h (2 Bft) 100,00 %
01.03.2022 23:44 5,6 C 5,0 C 1,1 C 65 % 1027,3 hPa 0,0 l/m 0 min 0 min 0 W/m 6,4 km/h (2 Bft) 97,87 %
01.03.2022 23:46 5,6 C 5,0 C 1,1 C 65 % 1027,3 hPa 0,0 l/m 0 min 0 min 0 W/m 6,4 km/h (2 Bft) 95,12 %
01.03.2022 23:48 5,6 C 5,0 C 1,1 C 65 % 1027,3 hPa 0,0 l/m 0 min 0 min 0 W/m 3,2 km/h (1 Bft) 95,74 %
01.03.2022 23:50 5,6 C 5,0 C 1,1 C 65 % 1027,3 hPa 0,0 l/m 0 min 0 min 0 W/m 6,4 km/h (2 Bft) 100,00 %
01.03.2022 23:52 5,6 C 5,0 C 1,1 C 65 % 1027,2 hPa 0,0 l/m 0 min 0 min 0 W/m 6,4 km/h (2 Bft) 80,49 %
01.03.2022 23:54 5,5 C 5,0 C 1,1 C 65 % 1027,2 hPa 0,0 l/m 0 min 0 min 0 W/m 3,2 km/h (1 Bft) 65,00 %
01.03.2022 23:56 5,5 C 5,0 C 1,1 C 65 % 1027,2 hPa 0,0 l/m 0 min 0 min 0 W/m 12,9 km/h (3 Bft) 96,43 %
01.03.2022 23:58 5,5 C 5,0 C 1,1 C 64 % 1027,2 hPa 0,0 l/m 0 min 0 min 0 W/m 6,4 km/h (2 Bft) 92,00 %
_ Min-Zeit 05:00 03:54 03:56 15:06 17:12 - - - - 02:08 09:32
Minimum _ 2,0 C 1,1 C -2,2 C 49 % 1027,2 hPa - - - - 0,0 km/h (0 Bft) 43,24 %
_ Max-Zeit 13:58 13:48 13:50 04:44 00:00 00:00 12:08 00:00 13:06 09:48 00:00
Maximum _ 9,9 C 13,9 C 6,1 C 75 % 1029,6 hPa 0,0 l/m 4 min 0 min 645 W/m 29,0 km/h
S (5 Bft)
100,00 %
Durchschnitt _ 5,6 C 5,3 C 1,3 C 64 % 1028,5 hPa #0,0 l/m #5:14 h #0 min. 174 W/m 11,0 km/h (2 Bft) 97,27 %
© 2022 W. Hausmann